Wetterdaten: aktuell Freitag, 21.02.2020 07:14
Datum Zeit Temp. I. Temp. 2m Feuchte I. Luftf.2m Luftdruck Regen Wind Richtung Richtung Solar Taupunkt Windchill Windben
21.02.2020 07:14 21,5 C 5,6 C 35 % 73 % 1025,7 hPa 0,0 l/m 17,7 km/h (3 Bft) W 270 7 W/m 1,2 C -1,5 C 25,7 km/h (4 Bft)
21.02.2020 07:13 21,5 C 5,6 C 35 % 73 % 1025,7 hPa 0,0 l/m 14,5 km/h (3 Bft) W-NW 292 7 W/m 1,2 C 0,1 C 24,1 km/h (4 Bft)
21.02.2020 07:12 21,5 C 5,6 C 35 % 73 % 1025,6 hPa 0,0 l/m 12,9 km/h (3 Bft) W-SW 247 7 W/m 1,2 C 0,9 C 30,6 km/h (5 Bft)
21.02.2020 07:11 21,5 C 5,6 C 35 % 73 % 1025,6 hPa 0,0 l/m 14,5 km/h (3 Bft) W 270 7 W/m 1,2 C 0,1 C 22,5 km/h (4 Bft)
21.02.2020 07:10 21,5 C 5,6 C 35 % 74 % 1025,6 hPa 0,0 l/m 20,9 km/h (4 Bft) W-NW 292 5 W/m 1,3 C -2,7 C 35,4 km/h (5 Bft)
21.02.2020 07:09 21,5 C 5,6 C 35 % 74 % 1025,6 hPa 0,0 l/m 14,5 km/h (3 Bft) W-NW 292 5 W/m 1,3 C 0,1 C 22,5 km/h (4 Bft)
21.02.2020 07:08 21,4 C 5,6 C 35 % 74 % 1025,6 hPa 0,0 l/m 16,1 km/h (3 Bft) W 270 0 W/m 1,3 C -0,7 C 32,2 km/h (5 Bft)
21.02.2020 07:07 21,4 C 5,6 C 35 % 74 % 1025,6 hPa 0,0 l/m 20,9 km/h (4 Bft) W-NW 292 0 W/m 1,3 C -2,7 C 40,2 km/h (6 Bft)
21.02.2020 07:06 21,4 C 5,6 C 35 % 74 % 1025,6 hPa 0,0 l/m 14,5 km/h (3 Bft) W-NW 292 0 W/m 1,3 C 0,1 C 25,7 km/h (4 Bft)
21.02.2020 07:05 21,4 C 5,6 C 35 % 74 % 1025,6 hPa 0,0 l/m 12,9 km/h (3 Bft) W-SW 247 0 W/m 1,3 C 0,9 C 19,3 km/h (3 Bft)
21.02.2020 07:04 21,4 C 5,6 C 35 % 74 % 1025,5 hPa 0,0 l/m 14,5 km/h (3 Bft) W 270 0 W/m 1,3 C 0,1 C 22,5 km/h (4 Bft)
21.02.2020 07:03 21,4 C 5,6 C 35 % 74 % 1025,6 hPa 0,0 l/m 22,5 km/h (4 Bft) W-NW 292 0 W/m 1,3 C -3,3 C 32,2 km/h (5 Bft)
21.02.2020 07:02 21,4 C 5,6 C 35 % 74 % 1025,6 hPa 0,0 l/m 17,7 km/h (3 Bft) W 270 0 W/m 1,3 C -1,5 C 29,0 km/h (5 Bft)
21.02.2020 07:01 21,4 C 5,6 C 35 % 74 % 1025,5 hPa 0,0 l/m 11,3 km/h (2 Bft) W-NW 292 0 W/m 1,3 C 1,9 C 19,3 km/h (3 Bft)
21.02.2020 07:00 21,4 C 5,6 C 35 % 74 % 1025,4 hPa 0,0 l/m 16,1 km/h (3 Bft) W-NW 292 0 W/m 1,3 C -0,7 C 30,6 km/h (5 Bft)
21.02.2020 06:59 21,4 C 5,6 C 35 % 75 % 1025,4 hPa 0,0 l/m 19,3 km/h (3 Bft) W-NW 292 0 W/m 1,5 C -2,1 C 33,8 km/h (5 Bft)
21.02.2020 06:58 21,3 C 5,6 C 35 % 75 % 1025,3 hPa 0,0 l/m 22,5 km/h (4 Bft) W-SW 247 0 W/m 1,5 C -3,3 C 33,8 km/h (5 Bft)
21.02.2020 06:57 21,3 C 5,6 C 35 % 75 % 1025,3 hPa 0,0 l/m 24,1 km/h (4 Bft) W-NW 292 0 W/m 1,5 C -3,8 C 40,2 km/h (6 Bft)
21.02.2020 06:56 21,3 C 5,6 C 35 % 76 % 1025,3 hPa 0,0 l/m 16,1 km/h (3 Bft) W 270 0 W/m 1,7 C -0,7 C 25,7 km/h (4 Bft)
21.02.2020 06:55 21,3 C 5,6 C 35 % 77 % 1025,2 hPa 0,0 l/m 25,7 km/h (4 Bft) W-SW 247 0 W/m 1,9 C -4,3 C 40,2 km/h (6 Bft)
21.02.2020 06:54 21,3 C 5,6 C 35 % 77 % 1025,2 hPa 0,0 l/m 14,5 km/h (3 Bft) W-SW 247 0 W/m 1,9 C 0,1 C 22,5 km/h (4 Bft)
21.02.2020 06:53 21,3 C 5,6 C 35 % 77 % 1025,1 hPa 0,0 l/m 16,1 km/h (3 Bft) W-SW 247 0 W/m 1,9 C -0,7 C 22,5 km/h (4 Bft)
21.02.2020 06:52 21,3 C 5,6 C 35 % 77 % 1025,1 hPa 0,0 l/m 9,7 km/h (2 Bft) W-SW 247 0 W/m 1,9 C 2,9 C 22,5 km/h (4 Bft)
21.02.2020 06:51 21,2 C 5,6 C 36 % 78 % 1025,1 hPa 0,0 l/m 16,1 km/h (3 Bft) W-NW 292 0 W/m 2,1 C -0,7 C 29,0 km/h (5 Bft)
21.02.2020 06:50 21,2 C 5,6 C 36 % 78 % 1025,1 hPa 0,0 l/m 17,7 km/h (3 Bft) W 270 0 W/m 2,1 C -1,5 C 30,6 km/h (5 Bft)
21.02.2020 06:49 21,2 C 5,6 C 36 % 78 % 1025,2 hPa 0,0 l/m 11,3 km/h (2 Bft) W 270 0 W/m 2,1 C 1,9 C 19,3 km/h (3 Bft)
21.02.2020 06:48 21,2 C 5,6 C 36 % 78 % 1025,0 hPa 0,0 l/m 8,0 km/h (2 Bft) W-SW 247 0 W/m 2,1 C 4,2 C 16,1 km/h (3 Bft)
21.02.2020 06:47 21,2 C 5,6 C 36 % 78 % 1025,0 hPa 0,0 l/m 11,3 km/h (2 Bft) W-SW 247 0 W/m 2,1 C 1,9 C 17,7 km/h (3 Bft)
21.02.2020 06:46 21,2 C 5,6 C 36 % 78 % 1024,9 hPa 0,0 l/m 19,3 km/h (3 Bft) W-SW 247 0 W/m 2,1 C -2,1 C 27,4 km/h (4 Bft)
21.02.2020 06:45 21,2 C 5,6 C 36 % 78 % 1024,9 hPa 0,0 l/m 19,3 km/h (3 Bft) W-SW 247 0 W/m 2,1 C -2,1 C 32,2 km/h (5 Bft)
21.02.2020 06:44 21,1 C 5,6 C 36 % 79 % 1024,9 hPa 0,0 l/m 12,9 km/h (3 Bft) W 270 0 W/m 2,3 C 0,9 C 30,6 km/h (5 Bft)
21.02.2020 06:43 21,1 C 5,6 C 36 % 79 % 1024,9 hPa 0,0 l/m 12,9 km/h (3 Bft) W 270 0 W/m 2,3 C 0,9 C 24,1 km/h (4 Bft)
21.02.2020 06:42 21,1 C 5,6 C 36 % 79 % 1024,8 hPa 0,0 l/m 8,0 km/h (2 Bft) W-SW 247 0 W/m 2,3 C 4,2 C 17,7 km/h (3 Bft)
21.02.2020 06:41 21,1 C 5,6 C 36 % 79 % 1024,8 hPa 0,0 l/m 11,3 km/h (2 Bft) W-NW 292 0 W/m 2,3 C 1,9 C 20,9 km/h (4 Bft)
21.02.2020 06:40 21,1 C 5,5 C 36 % 79 % 1024,8 hPa 0,0 l/m 6,4 km/h (2 Bft) W-SW 247 0 W/m 2,2 C 5,5 C 17,7 km/h (3 Bft)
21.02.2020 06:39 21,1 C 5,5 C 36 % 80 % 1024,7 hPa 0,0 l/m 16,1 km/h (3 Bft) W 270 0 W/m 2,3 C -0,9 C 25,7 km/h (4 Bft)
21.02.2020 06:38 21,1 C 5,5 C 36 % 80 % 1024,6 hPa 0,0 l/m 20,9 km/h (4 Bft) W 270 0 W/m 2,3 C -2,9 C 33,8 km/h (5 Bft)
21.02.2020 06:37 21,1 C 5,4 C 36 % 81 % 1024,6 hPa 0,0 l/m 12,9 km/h (3 Bft) W-NW 292 0 W/m 2,4 C 0,7 C 22,5 km/h (4 Bft)
21.02.2020 06:36 21,0 C 5,4 C 36 % 81 % 1024,4 hPa 0,0 l/m 14,5 km/h (3 Bft) W 270 0 W/m 2,4 C -0,2 C 29,0 km/h (5 Bft)
21.02.2020 06:35 21,0 C 5,4 C 36 % 81 % 1024,5 hPa 0,0 l/m 12,9 km/h (3 Bft) W-NW 292 0 W/m 2,4 C 0,7 C 24,1 km/h (4 Bft)
21.02.2020 06:34 21,0 C 5,4 C 36 % 81 % 1024,4 hPa 0,0 l/m 6,4 km/h (2 Bft) W 270 0 W/m 2,4 C 5,4 C 12,9 km/h (3 Bft)
21.02.2020 06:33 21,0 C 5,4 C 36 % 82 % 1024,4 hPa 0,0 l/m 16,1 km/h (3 Bft) W-SW 247 0 W/m 2,6 C -1,0 C 24,1 km/h (4 Bft)
21.02.2020 06:32 21,0 C 5,4 C 36 % 82 % 1024,4 hPa 0,0 l/m 20,9 km/h (4 Bft) W-SW 247 0 W/m 2,6 C -3,0 C 32,2 km/h (5 Bft)
21.02.2020 06:31 21,0 C 5,4 C 36 % 82 % 1024,3 hPa 0,0 l/m 9,7 km/h (2 Bft) W-SW 247 0 W/m 2,6 C 2,7 C 24,1 km/h (4 Bft)
21.02.2020 06:30 20,9 C 5,4 C 36 % 82 % 1024,3 hPa 0,0 l/m 6,4 km/h (2 Bft) W 270 0 W/m 2,6 C 5,4 C 9,7 km/h (2 Bft)
21.02.2020 06:29 20,9 C 5,5 C 36 % 82 % 1024,2 hPa 0,0 l/m 8,0 km/h (2 Bft) W 270 0 W/m 2,7 C 4,1 C 11,3 km/h (2 Bft)
21.02.2020 06:28 20,9 C 5,5 C 36 % 82 % 1024,3 hPa 0,0 l/m 9,7 km/h (2 Bft) W-SW 247 0 W/m 2,7 C 2,8 C 16,1 km/h (3 Bft)
21.02.2020 06:27 20,9 C 5,5 C 36 % 82 % 1024,2 hPa 0,0 l/m 6,4 km/h (2 Bft) W-SW 247 0 W/m 2,7 C 5,5 C 11,3 km/h (2 Bft)
21.02.2020 06:26 20,9 C 5,5 C 36 % 82 % 1024,1 hPa 0,0 l/m 4,8 km/h (1 Bft) W-SW 247 0 W/m 2,7 C 5,5 C 9,7 km/h (2 Bft)
21.02.2020 06:25 20,8 C 5,5 C 36 % 82 % 1024,0 hPa 0,0 l/m 9,7 km/h (2 Bft) W-SW 247 0 W/m 2,7 C 2,8 C 19,3 km/h (3 Bft)
21.02.2020 06:24 20,8 C 5,5 C 36 % 82 % 1024,1 hPa 0,0 l/m 9,7 km/h (2 Bft) W 270 0 W/m 2,7 C 2,8 C 16,1 km/h (3 Bft)
21.02.2020 06:23 20,8 C 5,5 C 36 % 82 % 1024,0 hPa 0,0 l/m 11,3 km/h (2 Bft) W-SW 247 0 W/m 2,7 C 1,8 C 22,5 km/h (4 Bft)
21.02.2020 06:22 20,8 C 5,5 C 36 % 82 % 1024,0 hPa 0,0 l/m 8,0 km/h (2 Bft) SW 225 0 W/m 2,7 C 4,1 C 19,3 km/h (3 Bft)
21.02.2020 06:21 20,8 C 5,5 C 36 % 82 % 1023,9 hPa 0,0 l/m 12,9 km/h (3 Bft) W-SW 247 0 W/m 2,7 C 0,8 C 19,3 km/h (3 Bft)
21.02.2020 06:20 20,8 C 5,5 C 36 % 82 % 1023,9 hPa 0,0 l/m 12,9 km/h (3 Bft) W-SW 247 0 W/m 2,7 C 0,8 C 20,9 km/h (4 Bft)
21.02.2020 06:19 20,7 C 5,5 C 36 % 82 % 1023,9 hPa 0,0 l/m 11,3 km/h (2 Bft) W 270 0 W/m 2,7 C 1,8 C 17,7 km/h (3 Bft)
21.02.2020 06:18 20,7 C 5,4 C 36 % 82 % 1023,9 hPa 0,0 l/m 8,0 km/h (2 Bft) SW 225 0 W/m 2,6 C 4,0 C 16,1 km/h (3 Bft)
21.02.2020 06:17 20,7 C 5,4 C 36 % 82 % 1023,9 hPa 0,0 l/m 12,9 km/h (3 Bft) W-SW 247 0 W/m 2,6 C 0,7 C 20,9 km/h (4 Bft)
21.02.2020 06:16 20,7 C 5,4 C 36 % 82 % 1023,9 hPa 0,0 l/m 9,7 km/h (2 Bft) W 270 0 W/m 2,6 C 2,7 C 25,7 km/h (4 Bft)
21.02.2020 06:15 20,7 C 5,4 C 36 % 82 % 1023,8 hPa 0,0 l/m 11,3 km/h (2 Bft) W 270 0 W/m 2,6 C 1,7 C 17,7 km/h (3 Bft)
21.02.2020 06:14 20,7 C 5,4 C 36 % 82 % 1023,9 hPa 0,0 l/m 16,1 km/h (3 Bft) W-NW 292 0 W/m 2,6 C -1,0 C 24,1 km/h (4 Bft)
21.02.2020 06:13 20,7 C 5,3 C 36 % 82 % 1023,8 hPa 0,0 l/m 19,3 km/h (3 Bft) W-SW 247 0 W/m 2,5 C -2,5 C 30,6 km/h (5 Bft)
21.02.2020 06:12 20,7 C 5,3 C 36 % 83 % 1023,7 hPa 0,0 l/m 17,7 km/h (3 Bft) W 270 0 W/m 2,7 C -1,8 C 35,4 km/h (5 Bft)
21.02.2020 06:11 20,7 C 5,3 C 36 % 83 % 1023,8 hPa 0,0 l/m 22,5 km/h (4 Bft) W-SW 247 0 W/m 2,7 C -3,7 C 40,2 km/h (6 Bft)
21.02.2020 06:10 20,7 C 5,3 C 36 % 83 % 1023,8 hPa 0,0 l/m 9,7 km/h (2 Bft) W 270 0 W/m 2,7 C 2,6 C 17,7 km/h (3 Bft)
21.02.2020 06:09 20,7 C 5,3 C 36 % 83 % 1023,7 hPa 0,0 l/m 9,7 km/h (2 Bft) W-SW 247 0 W/m 2,7 C 2,6 C 22,5 km/h (4 Bft)
21.02.2020 06:08 20,7 C 5,3 C 36 % 83 % 1023,7 hPa 0,0 l/m 11,3 km/h (2 Bft) W-NW 292 0 W/m 2,7 C 1,5 C 19,3 km/h (3 Bft)
21.02.2020 06:07 20,7 C 5,3 C 36 % 83 % 1023,6 hPa 0,0 l/m 6,4 km/h (2 Bft) W 270 0 W/m 2,7 C 5,3 C 11,3 km/h (2 Bft)
21.02.2020 06:06 20,7 C 5,3 C 36 % 83 % 1023,6 hPa 0,0 l/m 9,7 km/h (2 Bft) W 270 0 W/m 2,7 C 2,6 C 17,7 km/h (3 Bft)
21.02.2020 06:05 20,7 C 5,3 C 36 % 83 % 1023,5 hPa 0,0 l/m 12,9 km/h (3 Bft) W-SW 247 0 W/m 2,7 C 0,6 C 20,9 km/h (4 Bft)
21.02.2020 06:04 20,7 C 5,3 C 36 % 84 % 1023,6 hPa 0,0 l/m 9,7 km/h (2 Bft) W-SW 247 0 W/m 2,8 C 2,6 C 17,7 km/h (3 Bft)
21.02.2020 06:03 20,7 C 5,3 C 36 % 84 % 1023,5 hPa 0,0 l/m 9,7 km/h (2 Bft) W-SW 247 0 W/m 2,8 C 2,6 C 16,1 km/h (3 Bft)
21.02.2020 06:02 20,7 C 5,3 C 36 % 84 % 1023,5 hPa 0,0 l/m 11,3 km/h (2 Bft) W 270 0 W/m 2,8 C 1,5 C 20,9 km/h (4 Bft)
21.02.2020 06:01 20,7 C 5,3 C 36 % 84 % 1023,4 hPa 0,0 l/m 11,3 km/h (2 Bft) W-SW 247 0 W/m 2,8 C 1,5 C 22,5 km/h (4 Bft)
21.02.2020 06:00 20,7 C 5,3 C 36 % 84 % 1023,1 hPa 0,0 l/m 12,9 km/h (3 Bft) W-SW 247 0 W/m 2,8 C 0,6 C 24,1 km/h (4 Bft)
21.02.2020 05:59 20,7 C 5,3 C 36 % 84 % 1023,1 hPa 0,0 l/m 8,0 km/h (2 Bft) W-SW 247 0 W/m 2,8 C 3,9 C 11,3 km/h (2 Bft)
21.02.2020 05:58 20,7 C 5,3 C 36 % 84 % 1023,0 hPa 0,0 l/m 9,7 km/h (2 Bft) W-SW 247 0 W/m 2,8 C 2,6 C 19,3 km/h (3 Bft)
21.02.2020 05:57 20,7 C 5,3 C 36 % 84 % 1023,0 hPa 0,0 l/m 6,4 km/h (2 Bft) W-SW 247 0 W/m 2,8 C 5,3 C 17,7 km/h (3 Bft)
21.02.2020 05:56 20,7 C 5,3 C 36 % 84 % 1023,0 hPa 0,0 l/m 8,0 km/h (2 Bft) W-SW 247 0 W/m 2,8 C 3,9 C 14,5 km/h (3 Bft)
21.02.2020 05:55 20,7 C 5,3 C 36 % 84 % 1023,0 hPa 0,0 l/m 9,7 km/h (2 Bft) W-SW 247 0 W/m 2,8 C 2,6 C 20,9 km/h (4 Bft)
21.02.2020 05:54 20,7 C 5,3 C 36 % 84 % 1022,9 hPa 0,0 l/m 11,3 km/h (2 Bft) W-SW 247 0 W/m 2,8 C 1,5 C 16,1 km/h (3 Bft)
21.02.2020 05:53 20,7 C 5,3 C 36 % 84 % 1022,8 hPa 0,0 l/m 8,0 km/h (2 Bft) W 270 0 W/m 2,8 C 3,9 C 16,1 km/h (3 Bft)
21.02.2020 05:52 20,7 C 5,3 C 36 % 84 % 1022,9 hPa 0,0 l/m 11,3 km/h (2 Bft) W-SW 247 0 W/m 2,8 C 1,5 C 24,1 km/h (4 Bft)
21.02.2020 05:51 20,7 C 5,3 C 36 % 84 % 1022,9 hPa 0,0 l/m 9,7 km/h (2 Bft) W-SW 247 0 W/m 2,8 C 2,6 C 17,7 km/h (3 Bft)
21.02.2020 05:50 20,7 C 5,3 C 36 % 84 % 1022,9 hPa 0,0 l/m 9,7 km/h (2 Bft) W 270 0 W/m 2,8 C 2,6 C 17,7 km/h (3 Bft)
21.02.2020 05:49 20,7 C 5,3 C 36 % 84 % 1022,8 hPa 0,0 l/m 9,7 km/h (2 Bft) SW 225 0 W/m 2,8 C 2,6 C 20,9 km/h (4 Bft)
21.02.2020 05:48 20,7 C 5,3 C 36 % 84 % 1022,6 hPa 0,0 l/m 8,0 km/h (2 Bft) W-SW 247 0 W/m 2,8 C 3,9 C 12,9 km/h (3 Bft)
21.02.2020 05:47 20,7 C 5,3 C 36 % 84 % 1022,7 hPa 0,0 l/m 11,3 km/h (2 Bft) W 270 0 W/m 2,8 C 1,5 C 22,5 km/h (4 Bft)
21.02.2020 05:46 20,7 C 5,3 C 36 % 84 % 1022,7 hPa 0,0 l/m 9,7 km/h (2 Bft) W-SW 247 0 W/m 2,8 C 2,6 C 16,1 km/h (3 Bft)
21.02.2020 05:45 20,7 C 5,3 C 36 % 84 % 1022,8 hPa 0,0 l/m 11,3 km/h (2 Bft) W 270 0 W/m 2,8 C 1,5 C 22,5 km/h (4 Bft)
21.02.2020 05:44 20,7 C 5,3 C 36 % 84 % 1022,6 hPa 0,0 l/m 8,0 km/h (2 Bft) W-SW 247 0 W/m 2,8 C 3,9 C 16,1 km/h (3 Bft)
21.02.2020 05:43 20,7 C 5,3 C 36 % 84 % 1022,5 hPa 0,0 l/m 9,7 km/h (2 Bft) W-SW 247 0 W/m 2,8 C 2,6 C 17,7 km/h (3 Bft)
21.02.2020 05:42 20,7 C 5,3 C 36 % 84 % 1022,6 hPa 0,0 l/m 12,9 km/h (3 Bft) W 270 0 W/m 2,8 C 0,6 C 24,1 km/h (4 Bft)
21.02.2020 05:41 20,7 C 5,3 C 36 % 84 % 1022,7 hPa 0,0 l/m 14,5 km/h (3 Bft) W-SW 247 0 W/m 2,8 C -0,3 C 24,1 km/h (4 Bft)
21.02.2020 05:40 20,7 C 5,3 C 36 % 84 % 1022,6 hPa 0,0 l/m 6,4 km/h (2 Bft) SW 225 0 W/m 2,8 C 5,3 C 16,1 km/h (3 Bft)
21.02.2020 05:39 20,8 C 5,3 C 36 % 84 % 1022,6 hPa 0,0 l/m 6,4 km/h (2 Bft) W 270 0 W/m 2,8 C 5,3 C 11,3 km/h (2 Bft)
21.02.2020 05:38 20,8 C 5,3 C 36 % 84 % 1022,5 hPa 0,0 l/m 6,4 km/h (2 Bft) W 270 0 W/m 2,8 C 5,3 C 14,5 km/h (3 Bft)
21.02.2020 05:37 20,8 C 5,3 C 36 % 83 % 1022,5 hPa 0,0 l/m 9,7 km/h (2 Bft) W-SW 247 0 W/m 2,7 C 2,6 C 20,9 km/h (4 Bft)
21.02.2020 05:36 20,8 C 5,3 C 36 % 83 % 1022,4 hPa 0,0 l/m 9,7 km/h (2 Bft) W-SW 247 0 W/m 2,7 C 2,6 C 16,1 km/h (3 Bft)
21.02.2020 05:35 20,8 C 5,3 C 36 % 83 % 1022,3 hPa 0,0 l/m 6,4 km/h (2 Bft) W-SW 247 0 W/m 2,7 C 5,3 C 14,5 km/h (3 Bft)
21.02.2020 05:34 20,8 C 5,3 C 36 % 83 % 1022,2 hPa 0,0 l/m 16,1 km/h (3 Bft) W 270 0 W/m 2,7 C -1,1 C 29,0 km/h (5 Bft)
21.02.2020 05:33 20,8 C 5,3 C 36 % 83 % 1022,1 hPa 0,0 l/m 11,3 km/h (2 Bft) W 270 0 W/m 2,7 C 1,5 C 20,9 km/h (4 Bft)
21.02.2020 05:32 20,8 C 5,3 C 36 % 83 % 1022,1 hPa 0,0 l/m 14,5 km/h (3 Bft) W-SW 247 0 W/m 2,7 C -0,3 C 25,7 km/h (4 Bft)
21.02.2020 05:31 20,8 C 5,4 C 36 % 83 % 1022,0 hPa 0,0 l/m 8,0 km/h (2 Bft) SW 225 0 W/m 2,7 C 4,0 C 12,9 km/h (3 Bft)
21.02.2020 05:30 20,8 C 5,4 C 36 % 83 % 1022,0 hPa 0,0 l/m 8,0 km/h (2 Bft) W-SW 247 0 W/m 2,7 C 4,0 C 11,3 km/h (2 Bft)
21.02.2020 05:29 20,8 C 5,4 C 36 % 83 % 1022,0 hPa 0,0 l/m 9,7 km/h (2 Bft) W-SW 247 0 W/m 2,7 C 2,7 C 22,5 km/h (4 Bft)
21.02.2020 05:28 20,8 C 5,4 C 36 % 83 % 1021,9 hPa 0,0 l/m 9,7 km/h (2 Bft) W 270 0 W/m 2,7 C 2,7 C 17,7 km/h (3 Bft)
21.02.2020 05:27 20,8 C 5,4 C 36 % 83 % 1022,0 hPa 0,0 l/m 11,3 km/h (2 Bft) W 270 0 W/m 2,7 C 1,7 C 20,9 km/h (4 Bft)
21.02.2020 05:26 20,8 C 5,5 C 36 % 83 % 1021,9 hPa 0,0 l/m 9,7 km/h (2 Bft) W-SW 247 0 W/m 2,8 C 2,8 C 16,1 km/h (3 Bft)
21.02.2020 05:25 20,8 C 5,5 C 36 % 83 % 1021,8 hPa 0,0 l/m 9,7 km/h (2 Bft) W-SW 247 0 W/m 2,8 C 2,8 C 14,5 km/h (3 Bft)
21.02.2020 05:24 20,8 C 5,6 C 36 % 83 % 1021,8 hPa 0,0 l/m 6,4 km/h (2 Bft) W-SW 247 0 W/m 2,9 C 5,6 C 17,7 km/h (3 Bft)
21.02.2020 05:23 20,8 C 5,6 C 36 % 83 % 1021,7 hPa 0,0 l/m 9,7 km/h (2 Bft) W-SW 247 0 W/m 2,9 C 2,9 C 20,9 km/h (4 Bft)
21.02.2020 05:22 20,8 C 5,6 C 36 % 83 % 1021,7 hPa 0,0 l/m 8,0 km/h (2 Bft) W-SW 247 0 W/m 2,9 C 4,2 C 16,1 km/h (3 Bft)
21.02.2020 05:21 20,8 C 5,7 C 36 % 83 % 1021,7 hPa 0,0 l/m 8,0 km/h (2 Bft) W-SW 247 0 W/m 3,0 C 4,3 C 14,5 km/h (3 Bft)
21.02.2020 05:20 20,8 C 5,7 C 36 % 84 % 1021,7 hPa 0,0 l/m 11,3 km/h (2 Bft) W-SW 247 0 W/m 3,2 C 2,0 C 19,3 km/h (3 Bft)
21.02.2020 05:19 20,8 C 5,7 C 36 % 84 % 1021,6 hPa 0,0 l/m 12,9 km/h (3 Bft) SW 225 0 W/m 3,2 C 1,0 C 22,5 km/h (4 Bft)
21.02.2020 05:18 20,8 C 5,8 C 36 % 84 % 1021,6 hPa 0,0 l/m 11,3 km/h (2 Bft) W-SW 247 0 W/m 3,3 C 2,1 C 19,3 km/h (3 Bft)
21.02.2020 05:17 20,8 C 5,8 C 36 % 84 % 1021,6 hPa 0,0 l/m 4,8 km/h (1 Bft) W-SW 247 0 W/m 3,3 C 5,8 C 8,0 km/h (2 Bft)
21.02.2020 05:16 20,8 C 5,8 C 36 % 84 % 1021,6 hPa 0,0 l/m 8,0 km/h (2 Bft) SW 225 0 W/m 3,3 C 4,4 C 16,1 km/h (3 Bft)
21.02.2020 05:15 20,8 C 5,8 C 36 % 84 % 1021,6 hPa 0,0 l/m 11,3 km/h (2 Bft) W-SW 247 0 W/m 3,3 C 2,1 C 20,9 km/h (4 Bft)
21.02.2020 05:14 20,8 C 5,9 C 36 % 84 % 1021,6 hPa 0,0 l/m 11,3 km/h (2 Bft) W-SW 247 0 W/m 3,4 C 2,2 C 20,9 km/h (4 Bft)
21.02.2020 05:13 20,8 C 5,9 C 36 % 84 % 1021,5 hPa 0,0 l/m 8,0 km/h (2 Bft) W-SW 247 0 W/m 3,4 C 4,5 C 11,3 km/h (2 Bft)
21.02.2020 05:12 20,8 C 5,9 C 36 % 84 % 1021,3 hPa 0,0 l/m 8,0 km/h (2 Bft) W-SW 247 0 W/m 3,4 C 4,5 C 17,7 km/h (3 Bft)
21.02.2020 05:11 20,8 C 6,0 C 36 % 84 % 1021,2 hPa 0,0 l/m 9,7 km/h (2 Bft) W-NW 292 0 W/m 3,5 C 3,4 C 17,7 km/h (3 Bft)
21.02.2020 05:10 20,8 C 6,1 C 36 % 84 % 1021,2 hPa 0,0 l/m 9,7 km/h (2 Bft) W 270 0 W/m 3,6 C 3,5 C 16,1 km/h (3 Bft)
21.02.2020 05:09 20,8 C 6,1 C 36 % 84 % 1021,2 hPa 0,0 l/m 8,0 km/h (2 Bft) W 270 0 W/m 3,6 C 4,8 C 16,1 km/h (3 Bft)
21.02.2020 05:08 20,8 C 6,1 C 36 % 84 % 1021,2 hPa 0,0 l/m 16,1 km/h (3 Bft) W-NW 292 0 W/m 3,6 C -0,1 C 20,9 km/h (4 Bft)
21.02.2020 05:07 20,8 C 6,2 C 36 % 84 % 1021,2 hPa 0,0 l/m 14,5 km/h (3 Bft) W-NW 292 0 W/m 3,7 C 0,8 C 22,5 km/h (4 Bft)
21.02.2020 05:06 20,8 C 6,2 C 36 % 84 % 1021,2 hPa 0,0 l/m 14,5 km/h (3 Bft) W-NW 292 0 W/m 3,7 C 0,8 C 25,7 km/h (4 Bft)
21.02.2020 05:05 20,8 C 6,2 C 36 % 84 % 1021,3 hPa 0,0 l/m 14,5 km/h (3 Bft) W 270 0 W/m 3,7 C 0,8 C 22,5 km/h (4 Bft)
21.02.2020 05:04 20,8 C 6,3 C 36 % 84 % 1021,2 hPa 0,0 l/m 14,5 km/h (3 Bft) W 270 0 W/m 3,8 C 0,9 C 25,7 km/h (4 Bft)
21.02.2020 05:03 20,8 C 6,4 C 36 % 84 % 1021,0 hPa 0,0 l/m 11,3 km/h (2 Bft) W 270 0 W/m 3,9 C 2,8 C 19,3 km/h (3 Bft)
21.02.2020 05:02 20,8 C 6,4 C 36 % 84 % 1021,1 hPa 0,0 l/m 16,1 km/h (3 Bft) W 270 0 W/m 3,9 C 0,3 C 30,6 km/h (5 Bft)
21.02.2020 05:01 20,8 C 6,5 C 36 % 85 % 1021,2 hPa 0,0 l/m 20,9 km/h (4 Bft) W-NW 292 0 W/m 4,2 C -1,6 C 41,8 km/h (6 Bft)
21.02.2020 05:00 20,8 C 6,6 C 36 % 85 % 1021,1 hPa 0,0 l/m 11,3 km/h (2 Bft) W-NW 292 0 W/m 4,3 C 3,0 C 27,4 km/h (4 Bft)
21.02.2020 04:59 20,8 C 6,7 C 36 % 86 % 1021,2 hPa 0,0 l/m 19,3 km/h (3 Bft) W-NW 292 0 W/m 4,5 C -0,7 C 30,6 km/h (5 Bft)
21.02.2020 04:58 20,8 C 6,7 C 36 % 86 % 1021,1 hPa 0,0 l/m 19,3 km/h (3 Bft) W-NW 292 0 W/m 4,5 C -0,7 C 27,4 km/h (4 Bft)
21.02.2020 04:57 20,8 C 6,8 C 36 % 86 % 1021,2 hPa 0,0 l/m 24,1 km/h (4 Bft) W 270 0 W/m 4,6 C -2,2 C 41,8 km/h (6 Bft)
21.02.2020 04:56 20,8 C 6,8 C 36 % 86 % 1020,8 hPa 0,0 l/m 24,1 km/h (4 Bft) W-SW 247 0 W/m 4,6 C -2,2 C 33,8 km/h (5 Bft)
21.02.2020 04:55 20,8 C 6,8 C 36 % 86 % 1020,8 hPa 0,0 l/m 22,5 km/h (4 Bft) W 270 0 W/m 4,6 C -1,7 C 35,4 km/h (5 Bft)
21.02.2020 04:54 20,8 C 6,8 C 36 % 86 % 1020,6 hPa 0,2 l/m 17,7 km/h (3 Bft) W-NW 292 0 W/m 4,6 C 0,1 C 25,7 km/h (4 Bft)
21.02.2020 04:53 20,8 C 6,7 C 36 % 86 % 1020,4 hPa 0,0 l/m 22,5 km/h (4 Bft) W 270 0 W/m 4,5 C -1,9 C 41,8 km/h (6 Bft)
21.02.2020 04:52 20,8 C 6,7 C 36 % 86 % 1020,0 hPa 0,0 l/m 22,5 km/h (4 Bft) W 270 0 W/m 4,5 C -1,9 C 46,7 km/h (6 Bft)
21.02.2020 04:51 20,8 C 6,6 C 36 % 86 % 1019,8 hPa 0,0 l/m 9,7 km/h (2 Bft) W-SW 247 0 W/m 4,4 C 4,0 C 17,7 km/h (3 Bft)
21.02.2020 04:50 20,8 C 6,6 C 36 % 85 % 1019,7 hPa 0,0 l/m 3,2 km/h (1 Bft) W-SW 247 0 W/m 4,3 C 6,6 C 6,4 km/h (2 Bft)
21.02.2020 04:49 20,8 C 6,6 C 36 % 85 % 1019,5 hPa 0,2 l/m 6,4 km/h (2 Bft) W-SW 247 0 W/m 4,3 C 6,6 C 11,3 km/h (2 Bft)
21.02.2020 04:48 20,9 C 6,6 C 36 % 85 % 1019,5 hPa 0,0 l/m 4,8 km/h (1 Bft) W-SW 247 0 W/m 4,3 C 6,6 C 9,7 km/h (2 Bft)
21.02.2020 04:47 20,9 C 6,6 C 36 % 85 % 1019,4 hPa 0,0 l/m 3,2 km/h (1 Bft) W-SW 247 0 W/m 4,3 C 6,6 C 4,8 km/h (1 Bft)
21.02.2020 04:46 20,9 C 6,6 C 36 % 85 % 1019,3 hPa 0,0 l/m 3,2 km/h (1 Bft) W-SW 247 0 W/m 4,3 C 6,6 C 6,4 km/h (2 Bft)
21.02.2020 04:45 20,9 C 6,5 C 36 % 85 % 1019,2 hPa 0,0 l/m 4,8 km/h (1 Bft) W 270 0 W/m 4,2 C 6,5 C 8,0 km/h (2 Bft)
21.02.2020 04:44 20,9 C 6,6 C 36 % 85 % 1019,1 hPa 0,0 l/m 1,6 km/h (1 Bft) W-SW 247 0 W/m 4,3 C 6,6 C 3,2 km/h (1 Bft)
21.02.2020 04:43 20,9 C 6,5 C 36 % 85 % 1019,1 hPa 0,0 l/m 4,8 km/h (1 Bft) W-SW 247 0 W/m 4,2 C 6,5 C 9,7 km/h (2 Bft)
21.02.2020 04:42 20,9 C 6,5 C 36 % 85 % 1019,0 hPa 0,0 l/m 4,8 km/h (1 Bft) SW 225 0 W/m 4,2 C 6,5 C 9,7 km/h (2 Bft)
21.02.2020 04:41 20,9 C 6,6 C 36 % 85 % 1019,0 hPa 0,0 l/m 3,2 km/h (1 Bft) W-SW 247 0 W/m 4,3 C 6,6 C 6,4 km/h (2 Bft)
21.02.2020 04:40 20,9 C 6,6 C 36 % 85 % 1019,0 hPa 0,0 l/m 3,2 km/h (1 Bft) W-SW 247 0 W/m 4,3 C 6,6 C 4,8 km/h (1 Bft)
21.02.2020 04:39 20,9 C 6,6 C 36 % 85 % 1019,0 hPa 0,0 l/m 4,8 km/h (1 Bft) W-SW 247 0 W/m 4,3 C 6,6 C 9,7 km/h (2 Bft)
21.02.2020 04:38 20,9 C 6,6 C 36 % 85 % 1019,0 hPa 0,0 l/m 4,8 km/h (1 Bft) W-SW 247 0 W/m 4,3 C 6,6 C 8,0 km/h (2 Bft)
21.02.2020 04:37 20,9 C 6,6 C 36 % 85 % 1019,0 hPa 0,0 l/m 3,2 km/h (1 Bft) SW 225 0 W/m 4,3 C 6,6 C 8,0 km/h (2 Bft)
21.02.2020 04:36 20,9 C 6,6 C 36 % 85 % 1019,1 hPa 0,0 l/m 1,6 km/h (1 Bft) SW 225 0 W/m 4,3 C 6,6 C 3,2 km/h (1 Bft)
21.02.2020 04:35 20,9 C 6,6 C 36 % 85 % 1019,1 hPa 0,0 l/m 3,2 km/h (1 Bft) SW 225 0 W/m 4,3 C 6,6 C 6,4 km/h (2 Bft)
21.02.2020 04:34 20,9 C 6,6 C 36 % 85 % 1019,1 hPa 0,0 l/m 1,6 km/h (1 Bft) NW 315 0 W/m 4,3 C 6,6 C 8,0 km/h (2 Bft)
21.02.2020 04:33 20,9 C 6,6 C 36 % 85 % 1019,2 hPa 0,0 l/m 4,8 km/h (1 Bft) W-SW 247 0 W/m 4,3 C 6,6 C 8,0 km/h (2 Bft)
21.02.2020 04:32 20,9 C 6,6 C 36 % 85 % 1019,2 hPa 0,0 l/m 4,8 km/h (1 Bft) W-SW 247 0 W/m 4,3 C 6,6 C 6,4 km/h (2 Bft)
21.02.2020 04:31 20,9 C 6,7 C 36 % 85 % 1019,1 hPa 0,0 l/m 6,4 km/h (2 Bft) W-SW 247 0 W/m 4,4 C 6,7 C 11,3 km/h (2 Bft)
21.02.2020 04:30 20,9 C 6,7 C 36 % 85 % 1019,1 hPa 0,0 l/m 1,6 km/h (1 Bft) W-SW 247 0 W/m 4,4 C 6,7 C 3,2 km/h (1 Bft)
21.02.2020 04:29 20,9 C 6,7 C 36 % 85 % 1019,1 hPa 0,0 l/m 4,8 km/h (1 Bft) W-SW 247 0 W/m 4,4 C 6,7 C 8,0 km/h (2 Bft)
21.02.2020 04:28 20,9 C 6,7 C 36 % 85 % 1019,2 hPa 0,0 l/m 6,4 km/h (2 Bft) SW 225 0 W/m 4,4 C 6,7 C 14,5 km/h (3 Bft)
21.02.2020 04:27 20,9 C 6,7 C 36 % 85 % 1019,3 hPa 0,0 l/m 11,3 km/h (2 Bft) W-SW 247 0 W/m 4,4 C 3,1 C 17,7 km/h (3 Bft)
21.02.2020 04:26 20,9 C 6,7 C 36 % 85 % 1019,4 hPa 0,0 l/m 8,0 km/h (2 Bft) W-SW 247 0 W/m 4,4 C 5,4 C 16,1 km/h (3 Bft)
21.02.2020 04:25 20,9 C 6,7 C 36 % 84 % 1019,4 hPa 0,0 l/m 3,2 km/h (1 Bft) W-SW 247 0 W/m 4,2 C 6,7 C 9,7 km/h (2 Bft)
21.02.2020 04:24 21,0 C 6,7 C 36 % 84 % 1019,4 hPa 0,0 l/m 8,0 km/h (2 Bft) W-SW 247 0 W/m 4,2 C 5,4 C 17,7 km/h (3 Bft)
21.02.2020 04:23 21,0 C 6,7 C 36 % 84 % 1019,4 hPa 0,0 l/m 3,2 km/h (1 Bft) W-SW 247 0 W/m 4,2 C 6,7 C 4,8 km/h (1 Bft)
21.02.2020 04:22 21,0 C 6,8 C 36 % 84 % 1019,4 hPa 0,0 l/m 3,2 km/h (1 Bft) W-SW 247 0 W/m 4,3 C 6,8 C 12,9 km/h (3 Bft)
21.02.2020 04:21 21,0 C 6,8 C 36 % 84 % 1019,5 hPa 0,0 l/m 11,3 km/h (2 Bft) W-SW 247 0 W/m 4,3 C 3,2 C 16,1 km/h (3 Bft)
21.02.2020 04:20 21,0 C 6,8 C 36 % 84 % 1019,4 hPa 0,0 l/m 6,4 km/h (2 Bft) W-SW 247 0 W/m 4,3 C 6,8 C 16,1 km/h (3 Bft)
21.02.2020 04:19 21,0 C 6,8 C 36 % 84 % 1019,4 hPa 0,0 l/m 3,2 km/h (1 Bft) SW 225 0 W/m 4,3 C 6,8 C 6,4 km/h (2 Bft)
21.02.2020 04:18 21,0 C 6,8 C 36 % 84 % 1019,4 hPa 0,0 l/m 1,6 km/h (1 Bft) SW 225 0 W/m 4,3 C 6,8 C 6,4 km/h (2 Bft)
21.02.2020 04:17 21,0 C 6,8 C 36 % 84 % 1019,5 hPa 0,0 l/m 3,2 km/h (1 Bft) W 270 0 W/m 4,3 C 6,8 C 8,0 km/h (2 Bft)
21.02.2020 04:16 21,0 C 6,9 C 36 % 84 % 1019,5 hPa 0,0 l/m 3,2 km/h (1 Bft) W-SW 247 0 W/m 4,4 C 6,9 C 3,2 km/h (1 Bft)
21.02.2020 04:15 21,0 C 6,9 C 36 % 84 % 1019,5 hPa 0,0 l/m 3,2 km/h (1 Bft) W-SW 247 0 W/m 4,4 C 6,9 C 4,8 km/h (1 Bft)
21.02.2020 04:14 21,0 C 6,9 C 36 % 84 % 1019,5 hPa 0,0 l/m 1,6 km/h (1 Bft) W-SW 247 0 W/m 4,4 C 6,9 C 4,8 km/h (1 Bft)
21.02.2020 04:13 21,0 C 6,9 C 36 % 84 % 1019,5 hPa 0,0 l/m 8,0 km/h (2 Bft) W-SW 247 0 W/m 4,4 C 5,6 C 11,3 km/h (2 Bft)
21.02.2020 04:12 21,0 C 6,9 C 36 % 84 % 1019,5 hPa 0,0 l/m 6,4 km/h (2 Bft) W-SW 247 0 W/m 4,4 C 6,9 C 16,1 km/h (3 Bft)
21.02.2020 04:11 21,0 C 6,9 C 36 % 84 % 1019,5 hPa 0,0 l/m 8,0 km/h (2 Bft) W 270 0 W/m 4,4 C 5,6 C 16,1 km/h (3 Bft)
21.02.2020 04:10 21,0 C 7,0 C 36 % 84 % 1019,5 hPa 0,0 l/m 6,4 km/h (2 Bft) W 270 0 W/m 4,5 C 7,0 C 16,1 km/h (3 Bft)
21.02.2020 04:09 21,0 C 7,0 C 36 % 83 % 1019,6 hPa 0,0 l/m 4,8 km/h (1 Bft) W-SW 247 0 W/m 4,3 C 7,0 C 11,3 km/h (2 Bft)
21.02.2020 04:08 21,0 C 7,1 C 36 % 83 % 1019,6 hPa 0,0 l/m 4,8 km/h (1 Bft) W-SW 247 0 W/m 4,4 C 7,1 C 9,7 km/h (2 Bft)
21.02.2020 04:07 21,0 C 7,0 C 36 % 83 % 1019,7 hPa 0,0 l/m 6,4 km/h (2 Bft) W-SW 247 0 W/m 4,3 C 7,0 C 14,5 km/h (3 Bft)
21.02.2020 04:06 21,0 C 7,1 C 36 % 83 % 1019,7 hPa 0,2 l/m 4,8 km/h (1 Bft) W 270 0 W/m 4,4 C 7,1 C 8,0 km/h (2 Bft)
21.02.2020 04:05 21,0 C 7,1 C 36 % 83 % 1019,7 hPa 0,0 l/m 4,8 km/h (1 Bft) W-SW 247 0 W/m 4,4 C 7,1 C 8,0 km/h (2 Bft)
21.02.2020 04:04 21,0 C 7,1 C 36 % 83 % 1019,7 hPa 0,0 l/m 12,9 km/h (3 Bft) SW 225 0 W/m 4,4 C 2,7 C 19,3 km/h (3 Bft)
21.02.2020 04:03 21,0 C 7,1 C 36 % 82 % 1019,7 hPa 0,0 l/m 11,3 km/h (2 Bft) SW 225 0 W/m 4,2 C 3,6 C 20,9 km/h (4 Bft)
21.02.2020 04:02 21,0 C 7,1 C 36 % 82 % 1019,7 hPa 0,0 l/m 8,0 km/h (2 Bft) W-SW 247 0 W/m 4,2 C 5,8 C 16,1 km/h (3 Bft)
21.02.2020 04:01 21,0 C 7,1 C 36 % 82 % 1019,8 hPa 0,0 l/m 11,3 km/h (2 Bft) W-SW 247 0 W/m 4,2 C 3,6 C 20,9 km/h (4 Bft)
21.02.2020 04:00 21,1 C 7,1 C 36 % 82 % 1019,8 hPa 0,0 l/m 8,0 km/h (2 Bft) SW 225 0 W/m 4,2 C 5,8 C 16,1 km/h (3 Bft)
21.02.2020 03:59 21,1 C 7,2 C 36 % 82 % 1019,8 hPa 0,0 l/m 12,9 km/h (3 Bft) W-SW 247 0 W/m 4,3 C 2,8 C 19,3 km/h (3 Bft)
21.02.2020 03:58 21,1 C 7,2 C 36 % 81 % 1019,7 hPa 0,0 l/m 9,7 km/h (2 Bft) W-SW 247 0 W/m 4,2 C 4,7 C 16,1 km/h (3 Bft)
21.02.2020 03:57 21,1 C 7,2 C 36 % 81 % 1019,8 hPa 0,0 l/m 4,8 km/h (1 Bft) W-SW 247 0 W/m 4,2 C 7,2 C 8,0 km/h (2 Bft)
21.02.2020 03:56 21,1 C 7,2 C 36 % 81 % 1019,8 hPa 0,0 l/m 6,4 km/h (2 Bft) SW 225 0 W/m 4,2 C 7,2 C 9,7 km/h (2 Bft)
21.02.2020 03:55 21,1 C 7,2 C 36 % 81 % 1019,8 hPa 0,0 l/m 4,8 km/h (1 Bft) W 270 0 W/m 4,2 C 7,2 C 9,7 km/h (2 Bft)
21.02.2020 03:54 21,1 C 7,2 C 36 % 81 % 1019,8 hPa 0,0 l/m 8,0 km/h (2 Bft) W 270 0 W/m 4,2 C 5,9 C 14,5 km/h (3 Bft)
21.02.2020 03:53 21,1 C 7,2 C 36 % 81 % 1019,8 hPa 0,0 l/m 6,4 km/h (2 Bft) W-SW 247 0 W/m 4,2 C 7,2 C 14,5 km/h (3 Bft)
21.02.2020 03:52 21,1 C 7,2 C 36 % 81 % 1019,8 hPa 0,0 l/m 8,0 km/h (2 Bft) W 270 0 W/m 4,2 C 5,9 C 12,9 km/h (3 Bft)
21.02.2020 03:51 21,1 C 7,2 C 36 % 81 % 1019,8 hPa 0,0 l/m 6,4 km/h (2 Bft) W 270 0 W/m 4,2 C 7,2 C 9,7 km/h (2 Bft)
21.02.2020 03:50 21,1 C 7,2 C 36 % 81 % 1019,8 hPa 0,0 l/m 6,4 km/h (2 Bft) W-SW 247 0 W/m 4,2 C 7,2 C 8,0 km/h (2 Bft)
21.02.2020 03:49 21,1 C 7,2 C 36 % 81 % 1019,7 hPa 0,0 l/m 6,4 km/h (2 Bft) W-SW 247 0 W/m 4,2 C 7,2 C 11,3 km/h (2 Bft)
21.02.2020 03:48 21,1 C 7,2 C 36 % 81 % 1019,7 hPa 0,0 l/m 8,0 km/h (2 Bft) W-SW 247 0 W/m 4,2 C 5,9 C 17,7 km/h (3 Bft)
21.02.2020 03:47 21,1 C 7,2 C 36 % 81 % 1019,8 hPa 0,0 l/m 8,0 km/h (2 Bft) W 270 0 W/m 4,2 C 5,9 C 19,3 km/h (3 Bft)
21.02.2020 03:46 21,1 C 7,2 C 36 % 81 % 1019,7 hPa 0,0 l/m 8,0 km/h (2 Bft) W-SW 247 0 W/m 4,2 C 5,9 C 14,5 km/h (3 Bft)
21.02.2020 03:45 21,1 C 7,2 C 36 % 81 % 1019,7 hPa 0,0 l/m 8,0 km/h (2 Bft) W 270 0 W/m 4,2 C 5,9 C 17,7 km/h (3 Bft)
21.02.2020 03:44 21,1 C 7,3 C 36 % 81 % 1019,6 hPa 0,0 l/m 4,8 km/h (1 Bft) W-SW 247 0 W/m 4,3 C 7,3 C 8,0 km/h (2 Bft)
21.02.2020 03:43 21,1 C 7,2 C 36 % 81 % 1019,7 hPa 0,0 l/m 9,7 km/h (2 Bft) W-SW 247 0 W/m 4,2 C 4,7 C 17,7 km/h (3 Bft)
21.02.2020 03:42 21,1 C 7,3 C 36 % 81 % 1019,7 hPa 0,0 l/m 11,3 km/h (2 Bft) W-SW 247 0 W/m 4,3 C 3,8 C 17,7 km/h (3 Bft)
21.02.2020 03:41 21,1 C 7,3 C 36 % 81 % 1019,8 hPa 0,0 l/m 6,4 km/h (2 Bft) W-SW 247 0 W/m 4,3 C 7,3 C 17,7 km/h (3 Bft)
21.02.2020 03:40 21,1 C 7,3 C 36 % 81 % 1019,7 hPa 0,0 l/m 11,3 km/h (2 Bft) W-SW 247 0 W/m 4,3 C 3,8 C 16,1 km/h (3 Bft)
21.02.2020 03:39 21,1 C 7,3 C 36 % 81 % 1019,7 hPa 0,0 l/m 11,3 km/h (2 Bft) W 270 0 W/m 4,3 C 3,8 C 20,9 km/h (4 Bft)
21.02.2020 03:38 21,1 C 7,3 C 36 % 81 % 1019,7 hPa 0,0 l/m 14,5 km/h (3 Bft) W-SW 247 0 W/m 4,3 C 2,1 C 22,5 km/h (4 Bft)
21.02.2020 03:37 21,1 C 7,2 C 36 % 82 % 1019,8 hPa 0,0 l/m 11,3 km/h (2 Bft) W-SW 247 0 W/m 4,3 C 3,7 C 20,9 km/h (4 Bft)
21.02.2020 03:36 21,1 C 7,2 C 36 % 82 % 1019,7 hPa 0,0 l/m 11,3 km/h (2 Bft) W-SW 247 0 W/m 4,3 C 3,7 C 25,7 km/h (4 Bft)
21.02.2020 03:35 21,1 C 7,2 C 36 % 82 % 1019,7 hPa 0,0 l/m 8,0 km/h (2 Bft) W-NW 292 0 W/m 4,3 C 5,9 C 19,3 km/h (3 Bft)
21.02.2020 03:34 21,1 C 7,2 C 36 % 82 % 1019,7 hPa 0,0 l/m 12,9 km/h (3 Bft) W 270 0 W/m 4,3 C 2,8 C 30,6 km/h (5 Bft)
21.02.2020 03:33 21,1 C 7,2 C 36 % 82 % 1019,7 hPa 0,0 l/m 8,0 km/h (2 Bft) W 270 0 W/m 4,3 C 5,9 C 14,5 km/h (3 Bft)
21.02.2020 03:32 21,1 C 7,2 C 36 % 82 % 1019,7 hPa 0,0 l/m 14,5 km/h (3 Bft) W 270 0 W/m 4,3 C 2,0 C 24,1 km/h (4 Bft)
21.02.2020 03:31 21,1 C 7,2 C 36 % 83 % 1019,7 hPa 0,0 l/m 16,1 km/h (3 Bft) W-SW 247 0 W/m 4,5 C 1,2 C 30,6 km/h (5 Bft)
21.02.2020 03:30 21,1 C 7,1 C 36 % 83 % 1019,7 hPa 0,0 l/m 17,7 km/h (3 Bft) W 270 0 W/m 4,4 C 0,4 C 33,8 km/h (5 Bft)
21.02.2020 03:29 21,2 C 7,1 C 36 % 83 % 1019,7 hPa 0,0 l/m 16,1 km/h (3 Bft) W-SW 247 0 W/m 4,4 C 1,1 C 33,8 km/h (5 Bft)
21.02.2020 03:28 21,2 C 7,1 C 36 % 84 % 1019,8 hPa 0,0 l/m 16,1 km/h (3 Bft) W-SW 247 0 W/m 4,6 C 1,1 C 35,4 km/h (5 Bft)
21.02.2020 03:27 21,2 C 7,0 C 36 % 84 % 1019,7 hPa 0,0 l/m 11,3 km/h (2 Bft) W-SW 247 0 W/m 4,5 C 3,5 C 22,5 km/h (4 Bft)
21.02.2020 03:26 21,2 C 6,9 C 36 % 85 % 1019,9 hPa 0,0 l/m 16,1 km/h (3 Bft) W-NW 292 0 W/m 4,6 C 0,9 C 29,0 km/h (5 Bft)
21.02.2020 03:25 21,2 C 6,8 C 36 % 85 % 1019,8 hPa 0,0 l/m 12,9 km/h (3 Bft) W-SW 247 0 W/m 4,5 C 2,3 C 22,5 km/h (4 Bft)
21.02.2020 03:24 21,2 C 6,8 C 36 % 85 % 1019,8 hPa 0,0 l/m 12,9 km/h (3 Bft) W 270 0 W/m 4,5 C 2,3 C 20,9 km/h (4 Bft)
21.02.2020 03:23 21,2 C 6,7 C 36 % 86 % 1019,8 hPa 0,0 l/m 12,9 km/h (3 Bft) W 270 0 W/m 4,5 C 2,2 C 19,3 km/h (3 Bft)
21.02.2020 03:22 21,2 C 6,6 C 36 % 86 % 1019,8 hPa 0,0 l/m 12,9 km/h (3 Bft) W-SW 247 0 W/m 4,4 C 2,1 C 19,3 km/h (3 Bft)
21.02.2020 03:21 21,2 C 6,4 C 36 % 86 % 1019,8 hPa 0,0 l/m 12,9 km/h (3 Bft) W 270 0 W/m 4,2 C 1,9 C 24,1 km/h (4 Bft)
21.02.2020 03:20 21,2 C 6,2 C 36 % 88 % 1019,8 hPa 0,0 l/m 20,9 km/h (4 Bft) W 270 0 W/m 4,4 C -2,0 C 32,2 km/h (5 Bft)
21.02.2020 03:19 21,2 C 6,1 C 36 % 88 % 1019,7 hPa 0,0 l/m 19,3 km/h (3 Bft) W-SW 247 0 W/m 4,3 C -1,5 C 30,6 km/h (5 Bft)
21.02.2020 03:18 21,2 C 5,8 C 36 % 89 % 1019,6 hPa 0,0 l/m 19,3 km/h (3 Bft) W-SW 247 0 W/m 4,1 C -1,9 C 32,2 km/h (5 Bft)
21.02.2020 03:17 21,2 C 5,7 C 36 % 89 % 1019,7 hPa 0,0 l/m 14,5 km/h (3 Bft) W 270 0 W/m 4,0 C 0,2 C 25,7 km/h (4 Bft)
21.02.2020 03:16 21,2 C 5,4 C 36 % 89 % 1019,7 hPa 0,0 l/m 22,5 km/h (4 Bft) W-SW 247 0 W/m 3,7 C -3,6 C 41,8 km/h (6 Bft)
21.02.2020 03:15 21,2 C 5,2 C 36 % 89 % 1019,8 hPa 0,0 l/m 12,9 km/h (3 Bft) W-SW 247 0 W/m 3,5 C 0,5 C 20,9 km/h (4 Bft)
21.02.2020 03:14 21,2 C 4,9 C 36 % 90 % 1019,7 hPa 0,0 l/m 16,1 km/h (3 Bft) W-NW 292 0 W/m 3,4 C -1,6 C 27,4 km/h (4 Bft)
21.02.2020 03:13 21,2 C 4,8 C 36 % 90 % 1019,6 hPa 0,0 l/m 12,9 km/h (3 Bft) W-SW 247 0 W/m 3,3 C -0,0 C 27,4 km/h (4 Bft)
21.02.2020 03:12 21,2 C 4,5 C 36 % 90 % 1019,7 hPa 0,0 l/m 17,7 km/h (3 Bft) SW 225 0 W/m 3,0 C -2,8 C 27,4 km/h (4 Bft)
21.02.2020 03:11 21,2 C 4,3 C 36 % 90 % 1019,8 hPa 0,0 l/m 12,9 km/h (3 Bft) W 270 0 W/m 2,8 C -0,6 C 27,4 km/h (4 Bft)
21.02.2020 03:10 21,2 C 4,1 C 36 % 90 % 1019,8 hPa 0,0 l/m 4,8 km/h (1 Bft) W-SW 247 0 W/m 2,6 C 4,1 C 8,0 km/h (2 Bft)
21.02.2020 03:09 21,2 C 3,8 C 36 % 90 % 1019,8 hPa 0,0 l/m 9,7 km/h (2 Bft) W-SW 247 0 W/m 2,3 C 1,0 C 20,9 km/h (4 Bft)
21.02.2020 03:08 21,2 C 3,6 C 36 % 90 % 1019,7 hPa 0,0 l/m 14,5 km/h (3 Bft) W 270 0 W/m 2,1 C -2,3 C 19,3 km/h (3 Bft)
21.02.2020 03:07 21,2 C 3,3 C 36 % 90 % 1019,7 hPa 0,0 l/m 12,9 km/h (3 Bft) W 270 0 W/m 1,8 C -1,8 C 19,3 km/h (3 Bft)
21.02.2020 03:06 21,2 C 3,1 C 36 % 90 % 1019,7 hPa 0,0 l/m 4,8 km/h (1 Bft) W-SW 247 0 W/m 1,6 C 3,1 C 6,4 km/h (2 Bft)
21.02.2020 03:05 21,2 C 2,9 C 36 % 90 % 1019,7 hPa 0,0 l/m 6,4 km/h (2 Bft) W-SW 247 0 W/m 1,4 C 2,9 C 11,3 km/h (2 Bft)
21.02.2020 03:04 21,2 C 2,7 C 36 % 90 % 1019,6 hPa 0,0 l/m 6,4 km/h (2 Bft) W 270 0 W/m 1,2 C 2,7 C 9,7 km/h (2 Bft)
21.02.2020 03:03 21,2 C 2,5 C 36 % 90 % 1019,6 hPa 0,0 l/m 3,2 km/h (1 Bft) W 270 0 W/m 1,0 C 2,5 C 6,4 km/h (2 Bft)
21.02.2020 03:02 21,2 C 2,3 C 36 % 90 % 1019,6 hPa 0,0 l/m 6,4 km/h (2 Bft) W-SW 247 0 W/m 0,8 C 2,3 C 9,7 km/h (2 Bft)
21.02.2020 03:01 21,2 C 2,1 C 36 % 90 % 1019,7 hPa 0,0 l/m 4,8 km/h (1 Bft) W-SW 247 0 W/m 0,6 C 2,1 C 9,7 km/h (2 Bft)
21.02.2020 03:00 21,2 C 1,9 C 36 % 90 % 1019,6 hPa 0,0 l/m 3,2 km/h (1 Bft) W 270 0 W/m 0,4 C 1,9 C 6,4 km/h (2 Bft)
21.02.2020 02:59 21,2 C 1,7 C 36 % 90 % 1019,5 hPa 0,0 l/m 6,4 km/h (2 Bft) W-NW 292 0 W/m 0,2 C 1,7 C 11,3 km/h (2 Bft)
21.02.2020 02:58 21,2 C 1,6 C 36 % 90 % 1019,5 hPa 0,0 l/m 1,6 km/h (1 Bft) W-NW 292 0 W/m 0,1 C 1,6 C 3,2 km/h (1 Bft)
21.02.2020 02:57 21,2 C 1,4 C 36 % 90 % 1019,5 hPa 0,2 l/m 0,0 km/h (0 Bft) W-NW 292 0 W/m -0,1 C 1,4 C 3,2 km/h (1 Bft)
21.02.2020 02:56 21,2 C 1,3 C 36 % 90 % 1019,6 hPa 0,0 l/m 1,6 km/h (1 Bft) W-NW 292 0 W/m -0,2 C 1,3 C 6,4 km/h (2 Bft)
21.02.2020 02:55 21,2 C 1,1 C 36 % 90 % 1019,5 hPa 0,0 l/m 1,6 km/h (1 Bft) W-NW 292 0 W/m -0,4 C 1,1 C 9,7 km/h (2 Bft)
21.02.2020 02:54 21,3 C 0,9 C 36 % 90 % 1019,5 hPa 0,0 l/m 1,6 km/h (1 Bft) W 270 0 W/m -0,6 C 0,9 C 4,8 km/h (1 Bft)
21.02.2020 02:53 21,3 C 0,7 C 36 % 90 % 1019,6 hPa 0,0 l/m 6,4 km/h (2 Bft) W 270 0 W/m -0,7 C 0,7 C 16,1 km/h (3 Bft)
21.02.2020 02:52 21,3 C 0,6 C 36 % 90 % 1019,6 hPa 0,0 l/m 1,6 km/h (1 Bft) W 270 0 W/m -0,8 C 0,6 C 4,8 km/h (1 Bft)
21.02.2020 02:51 21,3 C 0,5 C 36 % 90 % 1019,6 hPa 0,0 l/m 1,6 km/h (1 Bft) W 270 0 W/m -0,9 C 0,5 C 4,8 km/h (1 Bft)
21.02.2020 02:50 21,3 C 0,4 C 36 % 90 % 1019,5 hPa 0,0 l/m 1,6 km/h (1 Bft) W 270 0 W/m -1,0 C 0,4 C 3,2 km/h (1 Bft)
21.02.2020 02:49 21,3 C 0,4 C 36 % 90 % 1019,5 hPa 0,0 l/m 0,0 km/h (0 Bft) N 0 0 W/m -1,0 C 0,4 C 0,0 km/h (0 Bft)
21.02.2020 02:48 21,3 C 0,3 C 36 % 90 % 1019,5 hPa 0,0 l/m 0,0 km/h (0 Bft) N 0 0 W/m -1,1 C 0,3 C 0,0 km/h (0 Bft)
21.02.2020 02:47 21,3 C 0,3 C 36 % 90 % 1019,5 hPa 0,0 l/m 0,0 km/h (0 Bft) N 0 0 W/m -1,1 C 0,3 C 0,0 km/h (0 Bft)
21.02.2020 02:46 21,3 C 0,3 C 36 % 90 % 1019,5 hPa 0,0 l/m 0,0 km/h (0 Bft) N 0 0 W/m -1,1 C 0,3 C 0,0 km/h (0 Bft)
21.02.2020 02:45 21,3 C 0,2 C 36 % 90 % 1019,5 hPa 0,0 l/m 0,0 km/h (0 Bft) N 0 0 W/m -1,2 C 0,2 C 0,0 km/h (0 Bft)
21.02.2020 02:44 21,3 C 0,2 C 36 % 90 % 1019,5 hPa 0,0 l/m 0,0 km/h (0 Bft) N 0 0 W/m -1,2 C 0,2 C 0,0 km/h (0 Bft)
21.02.2020 02:43 21,3 C 0,1 C 36 % 90 % 1019,5 hPa 0,0 l/m 0,0 km/h (0 Bft) N 0 0 W/m -1,3 C 0,1 C 0,0 km/h (0 Bft)
21.02.2020 02:42 21,3 C 0,0 C 36 % 90 % 1019,5 hPa 0,0 l/m 0,0 km/h (0 Bft) N 0 0 W/m -1,4 C 0,0 C 0,0 km/h (0 Bft)
21.02.2020 02:41 21,3 C -0,1 C 36 % 90 % 1019,6 hPa 0,0 l/m 0,0 km/h (0 Bft) N 0 0 W/m -1,5 C -0,1 C 0,0 km/h (0 Bft)
21.02.2020 02:40 21,3 C -0,1 C 36 % 90 % 1019,5 hPa 0,0 l/m 0,0 km/h (0 Bft) N 0 0 W/m -1,5 C -0,1 C 0,0 km/h (0 Bft)
21.02.2020 02:39 21,3 C -0,1 C 36 % 90 % 1019,5 hPa 0,0 l/m 0,0 km/h (0 Bft) N 0 0 W/m -1,5 C -0,1 C 0,0 km/h (0 Bft)
21.02.2020 02:38 21,3 C -0,2 C 36 % 90 % 1019,6 hPa 0,0 l/m 0,0 km/h (0 Bft) N 0 0 W/m -1,6 C -0,2 C 0,0 km/h (0 Bft)
21.02.2020 02:37 21,3 C -0,2 C 36 % 90 % 1019,6 hPa 0,0 l/m 0,0 km/h (0 Bft) N 0 0 W/m -1,6 C -0,2 C 0,0 km/h (0 Bft)
21.02.2020 02:36 21,3 C -0,3 C 36 % 90 % 1019,6 hPa 0,0 l/m 0,0 km/h (0 Bft) N 0 0 W/m -1,7 C -0,3 C 0,0 km/h (0 Bft)
21.02.2020 02:35 21,3 C -0,3 C 36 % 90 % 1019,7 hPa 0,0 l/m 0,0 km/h (0 Bft) N 0 0 W/m -1,7 C -0,3 C 0,0 km/h (0 Bft)
21.02.2020 02:34 21,3 C -0,4 C 36 % 90 % 1019,7 hPa 0,0 l/m 0,0 km/h (0 Bft) N 0 0 W/m -1,8 C -0,4 C 0,0 km/h (0 Bft)
21.02.2020 02:33 21,3 C -0,4 C 36 % 90 % 1019,6 hPa 0,0 l/m 0,0 km/h (0 Bft) N 0 0 W/m -1,8 C -0,4 C 0,0 km/h (0 Bft)
21.02.2020 02:32 21,3 C -0,5 C 36 % 90 % 1019,6 hPa 0,0 l/m 0,0 km/h (0 Bft) N 0 0 W/m -1,9 C -0,5 C 0,0 km/h (0 Bft)
21.02.2020 02:31 21,3 C -0,6 C 36 % 90 % 1019,7 hPa 0,0 l/m 0,0 km/h (0 Bft) N 0 0 W/m -2,0 C -0,6 C 0,0 km/h (0 Bft)
21.02.2020 02:30 21,3 C -0,6 C 36 % 90 % 1019,7 hPa 0,0 l/m 0,0 km/h (0 Bft) N 0 0 W/m -2,0 C -0,6 C 0,0 km/h (0 Bft)
21.02.2020 02:29 21,3 C -0,6 C 36 % 90 % 1019,7 hPa 0,0 l/m 0,0 km/h (0 Bft) N 0 0 W/m -2,0 C -0,6 C 0,0 km/h (0 Bft)
21.02.2020 02:28 21,3 C -0,7 C 36 % 90 % 1019,7 hPa 0,0 l/m 0,0 km/h (0 Bft) N 0 0 W/m -2,1 C -0,7 C 0,0 km/h (0 Bft)
21.02.2020 02:27 21,3 C -0,7 C 36 % 90 % 1019,7 hPa 0,0 l/m 0,0 km/h (0 Bft) N 0 0 W/m -2,1 C -0,7 C 0,0 km/h (0 Bft)
21.02.2020 02:26 21,3 C -0,7 C 36 % 90 % 1019,6 hPa 0,0 l/m 0,0 km/h (0 Bft) N 0 0 W/m -2,1 C -0,7 C 0,0 km/h (0 Bft)
21.02.2020 02:25 21,3 C -0,8 C 36 % 90 % 1019,6 hPa 0,0 l/m 0,0 km/h (0 Bft) N 0 0 W/m -2,2 C -0,8 C 0,0 km/h (0 Bft)
21.02.2020 02:24 21,3 C -0,8 C 36 % 90 % 1019,6 hPa 0,0 l/m 0,0 km/h (0 Bft) N 0 0 W/m -2,2 C -0,8 C 0,0 km/h (0 Bft)
21.02.2020 02:23 21,3 C -0,9 C 36 % 90 % 1019,6 hPa 0,0 l/m 0,0 km/h (0 Bft) N 0 0 W/m -2,3 C -0,9 C 0,0 km/h (0 Bft)
21.02.2020 02:22 21,3 C -0,9 C 36 % 90 % 1019,6 hPa 0,0 l/m 0,0 km/h (0 Bft) N 0 0 W/m -2,3 C -0,9 C 0,0 km/h (0 Bft)
21.02.2020 02:21 21,3 C -1,0 C 36 % 90 % 1019,6 hPa 0,0 l/m 0,0 km/h (0 Bft) N 0 0 W/m -2,4 C -1,0 C 0,0 km/h (0 Bft)
21.02.2020 02:20 21,3 C -1,1 C 36 % 90 % 1019,6 hPa 0,0 l/m 0,0 km/h (0 Bft) N 0 0 W/m -2,5 C -1,1 C 0,0 km/h (0 Bft)
21.02.2020 02:19 21,3 C -1,1 C 36 % 90 % 1019,6 hPa 0,0 l/m 0,0 km/h (0 Bft) N 0 0 W/m -2,5 C -1,1 C 0,0 km/h (0 Bft)
21.02.2020 02:18 21,3 C -1,2 C 36 % 90 % 1019,7 hPa 0,0 l/m 0,0 km/h (0 Bft) N 0 0 W/m -2,6 C -1,2 C 0,0 km/h (0 Bft)
21.02.2020 02:17 21,3 C -1,2 C 36 % 90 % 1019,7 hPa 0,0 l/m 0,0 km/h (0 Bft) N 0 0 W/m -2,6 C -1,2 C 0,0 km/h (0 Bft)
21.02.2020 02:16 21,3 C -1,3 C 36 % 90 % 1019,7 hPa 0,0 l/m 0,0 km/h (0 Bft) N 0 0 W/m -2,7 C -1,3 C 0,0 km/h (0 Bft)
21.02.2020 02:15 21,3 C -1,3 C 36 % 90 % 1019,7 hPa 0,0 l/m 0,0 km/h (0 Bft) N 0 0 W/m -2,7 C -1,3 C 0,0 km/h (0 Bft)
21.02.2020 02:14 21,3 C -1,3 C 36 % 90 % 1019,7 hPa 0,0 l/m 0,0 km/h (0 Bft) N 0 0 W/m -2,7 C -1,3 C 0,0 km/h (0 Bft)
21.02.2020 02:13 21,3 C -1,4 C 36 % 90 % 1019,7 hPa 0,0 l/m 0,0 km/h (0 Bft) N 0 0 W/m -2,8 C -1,4 C 0,0 km/h (0 Bft)
21.02.2020 02:12 21,3 C -1,4 C 36 % 90 % 1019,8 hPa 0,0 l/m 0,0 km/h (0 Bft) N 0 0 W/m -2,8 C -1,4 C 0,0 km/h (0 Bft)
21.02.2020 02:11 21,3 C -1,4 C 36 % 90 % 1019,8 hPa 0,0 l/m 0,0 km/h (0 Bft) N 0 0 W/m -2,8 C -1,4 C 0,0 km/h (0 Bft)
21.02.2020 02:10 21,3 C -1,4 C 36 % 90 % 1019,8 hPa 0,0 l/m 0,0 km/h (0 Bft) N 0 0 W/m -2,8 C -1,4 C 0,0 km/h (0 Bft)
21.02.2020 02:09 21,4 C -1,4 C 36 % 90 % 1019,8 hPa 0,0 l/m 0,0 km/h (0 Bft) N 0 0 W/m -2,8 C -1,4 C 0,0 km/h (0 Bft)
21.02.2020 02:08 21,4 C -1,4 C 36 % 90 % 1019,8 hPa 0,0 l/m 0,0 km/h (0 Bft) N 0 0 W/m -2,8 C -1,4 C 0,0 km/h (0 Bft)
21.02.2020 02:07 21,4 C -1,5 C 36 % 90 % 1019,9 hPa 0,0 l/m 0,0 km/h (0 Bft) N 0 0 W/m -2,9 C -1,5 C 0,0 km/h (0 Bft)
21.02.2020 02:06 21,4 C -1,5 C 36 % 90 % 1019,9 hPa 0,0 l/m 0,0 km/h (0 Bft) N 0 0 W/m -2,9 C -1,5 C 0,0 km/h (0 Bft)
21.02.2020 02:05 21,4 C -1,6 C 36 % 90 % 1019,9 hPa 0,0 l/m 0,0 km/h (0 Bft) N 0 0 W/m -3,0 C -1,6 C 0,0 km/h (0 Bft)
21.02.2020 02:04 21,4 C -1,6 C 36 % 90 % 1019,8 hPa 0,0 l/m 0,0 km/h (0 Bft) N 0 0 W/m -3,0 C -1,6 C 0,0 km/h (0 Bft)
21.02.2020 02:03 21,4 C -1,6 C 36 % 90 % 1019,9 hPa 0,0 l/m 0,0 km/h (0 Bft) N 0 0 W/m -3,0 C -1,6 C 0,0 km/h (0 Bft)
21.02.2020 02:02 21,4 C -1,6 C 36 % 90 % 1019,9 hPa 0,0 l/m 0,0 km/h (0 Bft) N 0 0 W/m -3,0 C -1,6 C 0,0 km/h (0 Bft)
21.02.2020 02:01 21,4 C -1,6 C 36 % 90 % 1019,8 hPa 0,0 l/m 0,0 km/h (0 Bft) N 0 0 W/m -3,0 C -1,6 C 0,0 km/h (0 Bft)
21.02.2020 02:00 21,4 C -1,6 C 36 % 90 % 1020,0 hPa 0,0 l/m 0,0 km/h (0 Bft) N 0 0 W/m -3,0 C -1,6 C 0,0 km/h (0 Bft)
21.02.2020 01:59 21,4 C -1,6 C 36 % 90 % 1020,0 hPa 0,0 l/m 0,0 km/h (0 Bft) N 0 0 W/m -3,0 C -1,6 C 0,0 km/h (0 Bft)
21.02.2020 01:58 21,4 C -1,5 C 36 % 90 % 1020,0 hPa 0,0 l/m 0,0 km/h (0 Bft) N 0 0 W/m -2,9 C -1,5 C 0,0 km/h (0 Bft)
21.02.2020 01:57 21,4 C -1,5 C 36 % 90 % 1020,1 hPa 0,0 l/m 0,0 km/h (0 Bft) N 0 0 W/m -2,9 C -1,5 C 0,0 km/h (0 Bft)
21.02.2020 01:56 21,4 C -1,5 C 36 % 90 % 1020,1 hPa 0,0 l/m 0,0 km/h (0 Bft) N 0 0 W/m -2,9 C -1,5 C 0,0 km/h (0 Bft)
21.02.2020 01:55 21,4 C -1,5 C 36 % 90 % 1020,0 hPa 0,0 l/m 0,0 km/h (0 Bft) N 0 0 W/m -2,9 C -1,5 C 0,0 km/h (0 Bft)
21.02.2020 01:54 21,4 C -1,5 C 36 % 90 % 1020,1 hPa 0,0 l/m 0,0 km/h (0 Bft) N 0 0 W/m -2,9 C -1,5 C 0,0 km/h (0 Bft)
21.02.2020 01:53 21,4 C -1,5 C 36 % 90 % 1020,1 hPa 0,0 l/m 0,0 km/h (0 Bft) N 0 0 W/m -2,9 C -1,5 C 0,0 km/h (0 Bft)
21.02.2020 01:52 21,4 C -1,5 C 36 % 90 % 1020,1 hPa 0,0 l/m 0,0 km/h (0 Bft) N 0 0 W/m -2,9 C -1,5 C 0,0 km/h (0 Bft)
21.02.2020 01:51 21,4 C -1,4 C 36 % 90 % 1020,1 hPa 0,0 l/m 0,0 km/h (0 Bft) N 0 0 W/m -2,8 C -1,4 C 0,0 km/h (0 Bft)
21.02.2020 01:50 21,4 C -1,4 C 36 % 90 % 1020,1 hPa 0,0 l/m 0,0 km/h (0 Bft) N 0 0 W/m -2,8 C -1,4 C 0,0 km/h (0 Bft)
21.02.2020 01:49 21,4 C -1,4 C 36 % 90 % 1020,0 hPa 0,0 l/m 0,0 km/h (0 Bft) N 0 0 W/m -2,8 C -1,4 C 0,0 km/h (0 Bft)
21.02.2020 01:48 21,4 C -1,4 C 36 % 90 % 1020,0 hPa 0,0 l/m 0,0 km/h (0 Bft) N 0 0 W/m -2,8 C -1,4 C 0,0 km/h (0 Bft)
21.02.2020 01:47 21,4 C -1,4 C 36 % 90 % 1020,0 hPa 0,0 l/m 0,0 km/h (0 Bft) N 0 0 W/m -2,8 C -1,4 C 0,0 km/h (0 Bft)
21.02.2020 01:46 21,4 C -1,3 C 36 % 90 % 1020,0 hPa 0,0 l/m 0,0 km/h (0 Bft) N 0 0 W/m -2,7 C -1,3 C 0,0 km/h (0 Bft)
21.02.2020 01:45 21,4 C -1,3 C 36 % 90 % 1020,0 hPa 0,0 l/m 0,0 km/h (0 Bft) N 0 0 W/m -2,7 C -1,3 C 0,0 km/h (0 Bft)
21.02.2020 01:44 21,4 C -1,3 C 36 % 90 % 1020,0 hPa 0,0 l/m 0,0 km/h (0 Bft) W-SW 247 0 W/m -2,7 C -1,3 C 1,6 km/h (1 Bft)
21.02.2020 01:43 21,4 C -1,3 C 36 % 90 % 1020,0 hPa 0,0 l/m 0,0 km/h (0 Bft) W-SW 247 0 W/m -2,7 C -1,3 C 1,6 km/h (1 Bft)
21.02.2020 01:42 21,4 C -1,2 C 36 % 89 % 1019,9 hPa 0,0 l/m 0,0 km/h (0 Bft) N 0 0 W/m -2,8 C -1,2 C 0,0 km/h (0 Bft)
21.02.2020 01:41 21,4 C -1,2 C 36 % 90 % 1019,9 hPa 0,0 l/m 0,0 km/h (0 Bft) N 0 0 W/m -2,6 C -1,2 C 0,0 km/h (0 Bft)
21.02.2020 01:40 21,4 C -1,2 C 36 % 90 % 1019,8 hPa 0,0 l/m 0,0 km/h (0 Bft) N 0 0 W/m -2,6 C -1,2 C 0,0 km/h (0 Bft)
21.02.2020 01:39 21,4 C -1,2 C 36 % 90 % 1019,9 hPa 0,0 l/m 0,0 km/h (0 Bft) N 0 0 W/m -2,6 C -1,2 C 0,0 km/h (0 Bft)
21.02.2020 01:38 21,4 C -1,2 C 36 % 90 % 1019,8 hPa 0,0 l/m 0,0 km/h (0 Bft) N 0 0 W/m -2,6 C -1,2 C 0,0 km/h (0 Bft)
21.02.2020 01:37 21,4 C -1,2 C 36 % 90 % 1019,8 hPa 0,0 l/m 0,0 km/h (0 Bft) N 0 0 W/m -2,6 C -1,2 C 0,0 km/h (0 Bft)
21.02.2020 01:36 21,4 C -1,1 C 36 % 90 % 1019,8 hPa 0,0 l/m 0,0 km/h (0 Bft) N 0 0 W/m -2,5 C -1,1 C 0,0 km/h (0 Bft)
21.02.2020 01:35 21,4 C -1,1 C 36 % 90 % 1019,8 hPa 0,0 l/m 0,0 km/h (0 Bft) N 0 0 W/m -2,5 C -1,1 C 0,0 km/h (0 Bft)
21.02.2020 01:34 21,4 C -1,1 C 36 % 90 % 1019,8 hPa 0,0 l/m 0,0 km/h (0 Bft) N 0 0 W/m -2,5 C -1,1 C 0,0 km/h (0 Bft)
21.02.2020 01:33 21,4 C -1,1 C 36 % 90 % 1019,8 hPa 0,0 l/m 0,0 km/h (0 Bft) W-SW 247 0 W/m -2,5 C -1,1 C 1,6 km/h (1 Bft)
21.02.2020 01:32 21,4 C -1,1 C 36 % 90 % 1019,8 hPa 0,0 l/m 0,0 km/h (0 Bft) N 0 0 W/m -2,5 C -1,1 C 0,0 km/h (0 Bft)
21.02.2020 01:31 21,4 C -1,0 C 36 % 90 % 1019,8 hPa 0,0 l/m 0,0 km/h (0 Bft) N 0 0 W/m -2,4 C -1,0 C 0,0 km/h (0 Bft)
21.02.2020 01:30 21,4 C -1,0 C 36 % 90 % 1019,8 hPa 0,0 l/m 0,0 km/h (0 Bft) N 0 0 W/m -2,4 C -1,0 C 0,0 km/h (0 Bft)
21.02.2020 01:29 21,4 C -1,0 C 36 % 90 % 1019,8 hPa 0,0 l/m 0,0 km/h (0 Bft) N 0 0 W/m -2,4 C -1,0 C 0,0 km/h (0 Bft)
21.02.2020 01:28 21,4 C -0,9 C 36 % 89 % 1019,8 hPa 0,0 l/m 0,0 km/h (0 Bft) N 0 0 W/m -2,5 C -0,9 C 0,0 km/h (0 Bft)
21.02.2020 01:27 21,4 C -0,9 C 36 % 90 % 1019,9 hPa 0,0 l/m 0,0 km/h (0 Bft) N 0 0 W/m -2,3 C -0,9 C 0,0 km/h (0 Bft)
21.02.2020 01:26 21,4 C -0,9 C 36 % 90 % 1019,9 hPa 0,0 l/m 0,0 km/h (0 Bft) N 0 0 W/m -2,3 C -0,9 C 0,0 km/h (0 Bft)
21.02.2020 01:25 21,4 C -0,9 C 36 % 90 % 1019,8 hPa 0,0 l/m 0,0 km/h (0 Bft) N 0 0 W/m -2,3 C -0,9 C 0,0 km/h (0 Bft)
21.02.2020 01:24 21,4 C -0,9 C 36 % 90 % 1019,9 hPa 0,0 l/m 0,0 km/h (0 Bft) N 0 0 W/m -2,3 C -0,9 C 0,0 km/h (0 Bft)
21.02.2020 01:23 21,4 C -0,9 C 36 % 90 % 1019,9 hPa 0,0 l/m 0,0 km/h (0 Bft) N 0 0 W/m -2,3 C -0,9 C 0,0 km/h (0 Bft)
21.02.2020 01:22 21,4 C -0,9 C 36 % 90 % 1019,9 hPa 0,0 l/m 0,0 km/h (0 Bft) W-SW 247 0 W/m -2,3 C -0,9 C 1,6 km/h (1 Bft)
21.02.2020 01:21 21,4 C -0,9 C 36 % 90 % 1019,9 hPa 0,0 l/m 0,0 km/h (0 Bft) W-SW 247 0 W/m -2,3 C -0,9 C 1,6 km/h (1 Bft)
21.02.2020 01:20 21,4 C -0,9 C 36 % 90 % 1020,0 hPa 0,0 l/m 0,0 km/h (0 Bft) N 0 0 W/m -2,3 C -0,9 C 0,0 km/h (0 Bft)
21.02.2020 01:19 21,4 C -0,9 C 36 % 90 % 1020,0 hPa 0,0 l/m 0,0 km/h (0 Bft) N 0 0 W/m -2,3 C -0,9 C 0,0 km/h (0 Bft)
21.02.2020 01:18 21,4 C -0,9 C 36 % 90 % 1020,0 hPa 0,0 l/m 0,0 km/h (0 Bft) N 0 0 W/m -2,3 C -0,9 C 0,0 km/h (0 Bft)
21.02.2020 01:17 21,4 C -0,9 C 36 % 90 % 1020,1 hPa 0,0 l/m 0,0 km/h (0 Bft) N 0 0 W/m -2,3 C -0,9 C 0,0 km/h (0 Bft)
21.02.2020 01:16 21,4 C -0,9 C 36 % 90 % 1020,1 hPa 0,0 l/m 0,0 km/h (0 Bft) N 0 0 W/m -2,3 C -0,9 C 0,0 km/h (0 Bft)
21.02.2020 01:15 21,4 C -0,9 C 36 % 90 % 1020,1 hPa 0,0 l/m 0,0 km/h (0 Bft) N 0 0 W/m -2,3 C -0,9 C 0,0 km/h (0 Bft)
21.02.2020 01:14 21,4 C -0,9 C 36 % 90 % 1020,2 hPa 0,0 l/m 0,0 km/h (0 Bft) N 0 0 W/m -2,3 C -0,9 C 0,0 km/h (0 Bft)
21.02.2020 01:13 21,4 C -0,9 C 36 % 90 % 1020,2 hPa 0,0 l/m 0,0 km/h (0 Bft) N 0 0 W/m -2,3 C -0,9 C 0,0 km/h (0 Bft)
21.02.2020 01:12 21,4 C -0,9 C 36 % 90 % 1020,3 hPa 0,0 l/m 0,0 km/h (0 Bft) N 0 0 W/m -2,3 C -0,9 C 0,0 km/h (0 Bft)
21.02.2020 01:11 21,4 C -0,9 C 36 % 90 % 1020,4 hPa 0,0 l/m 0,0 km/h (0 Bft) N 0 0 W/m -2,3 C -0,9 C 0,0 km/h (0 Bft)
21.02.2020 01:10 21,4 C -1,0 C 36 % 90 % 1020,4 hPa 0,0 l/m 0,0 km/h (0 Bft) N 0 0 W/m -2,4 C -1,0 C 0,0 km/h (0 Bft)
21.02.2020 01:09 21,4 C -1,0 C 36 % 90 % 1020,3 hPa 0,0 l/m 0,0 km/h (0 Bft) W-SW 247 0 W/m -2,4 C -1,0 C 1,6 km/h (1 Bft)
21.02.2020 01:08 21,4 C -1,1 C 36 % 90 % 1020,5 hPa 0,0 l/m 1,6 km/h (1 Bft) W-SW 247 0 W/m -2,5 C -1,1 C 1,6 km/h (1 Bft)
21.02.2020 01:07 21,4 C -1,1 C 36 % 90 % 1020,4 hPa 0,0 l/m 1,6 km/h (1 Bft) W-SW 247 0 W/m -2,5 C -1,1 C 3,2 km/h (1 Bft)
21.02.2020 01:06 21,4 C -1,1 C 36 % 90 % 1020,5 hPa 0,0 l/m 1,6 km/h (1 Bft) W-SW 247 0 W/m -2,5 C -1,1 C 3,2 km/h (1 Bft)
21.02.2020 01:05 21,4 C -1,1 C 36 % 90 % 1020,4 hPa 0,0 l/m 0,0 km/h (0 Bft) W-SW 247 0 W/m -2,5 C -1,1 C 1,6 km/h (1 Bft)
21.02.2020 01:04 21,4 C -1,1 C 36 % 90 % 1020,5 hPa 0,0 l/m 0,0 km/h (0 Bft) N 0 0 W/m -2,5 C -1,1 C 0,0 km/h (0 Bft)
21.02.2020 01:03 21,4 C -1,1 C 36 % 90 % 1020,5 hPa 0,0 l/m 0,0 km/h (0 Bft) N 0 0 W/m -2,5 C -1,1 C 0,0 km/h (0 Bft)
21.02.2020 01:02 21,4 C -1,1 C 36 % 90 % 1020,4 hPa 0,0 l/m 0,0 km/h (0 Bft) N 0 0 W/m -2,5 C -1,1 C 0,0 km/h (0 Bft)
21.02.2020 01:01 21,4 C -1,2 C 36 % 90 % 1020,4 hPa 0,0 l/m 0,0 km/h (0 Bft) N 0 0 W/m -2,6 C -1,2 C 0,0 km/h (0 Bft)
21.02.2020 01:00 21,4 C -1,2 C 36 % 90 % 1020,5 hPa 0,0 l/m 0,0 km/h (0 Bft) N 0 0 W/m -2,6 C -1,2 C 0,0 km/h (0 Bft)
21.02.2020 00:59 21,4 C -1,2 C 36 % 90 % 1020,5 hPa 0,0 l/m 0,0 km/h (0 Bft) W-SW 247 0 W/m -2,6 C -1,2 C 1,6 km/h (1 Bft)
21.02.2020 00:58 21,4 C -1,2 C 36 % 90 % 1020,4 hPa 0,0 l/m 0,0 km/h (0 Bft) W-SW 247 0 W/m -2,6 C -1,2 C 1,6 km/h (1 Bft)
21.02.2020 00:57 21,4 C -1,2 C 36 % 90 % 1020,4 hPa 0,0 l/m 1,6 km/h (1 Bft) W-SW 247 0 W/m -2,6 C -1,2 C 3,2 km/h (1 Bft)
21.02.2020 00:56 21,4 C -1,2 C 36 % 90 % 1020,4 hPa 0,0 l/m 0,0 km/h (0 Bft) W-SW 247 0 W/m -2,6 C -1,2 C 1,6 km/h (1 Bft)
21.02.2020 00:55 21,4 C -1,2 C 36 % 90 % 1020,4 hPa 0,0 l/m 0,0 km/h (0 Bft) N 0 0 W/m -2,6 C -1,2 C 0,0 km/h (0 Bft)
21.02.2020 00:54 21,5 C -1,2 C 36 % 90 % 1020,4 hPa 0,0 l/m 0,0 km/h (0 Bft) N 0 0 W/m -2,6 C -1,2 C 0,0 km/h (0 Bft)
21.02.2020 00:53 21,5 C -1,2 C 36 % 90 % 1020,4 hPa 0,0 l/m 0,0 km/h (0 Bft) W-SW 247 0 W/m -2,6 C -1,2 C 1,6 km/h (1 Bft)
21.02.2020 00:52 21,5 C -1,2 C 36 % 89 % 1020,4 hPa 0,0 l/m 0,0 km/h (0 Bft) N 0 0 W/m -2,8 C -1,2 C 0,0 km/h (0 Bft)
21.02.2020 00:51 21,5 C -1,1 C 36 % 89 % 1020,5 hPa 0,0 l/m 0,0 km/h (0 Bft) N 0 0 W/m -2,7 C -1,1 C 0,0 km/h (0 Bft)
21.02.2020 00:50 21,5 C -1,1 C 36 % 89 % 1020,5 hPa 0,0 l/m 0,0 km/h (0 Bft) N 0 0 W/m -2,7 C -1,1 C 0,0 km/h (0 Bft)
21.02.2020 00:49 21,5 C -1,1 C 36 % 89 % 1020,5 hPa 0,0 l/m 0,0 km/h (0 Bft) N 0 0 W/m -2,7 C -1,1 C 0,0 km/h (0 Bft)
21.02.2020 00:48 21,5 C -1,1 C 36 % 89 % 1020,5 hPa 0,0 l/m 0,0 km/h (0 Bft) N 0 0 W/m -2,7 C -1,1 C 0,0 km/h (0 Bft)
21.02.2020 00:47 21,5 C -1,1 C 36 % 89 % 1020,5 hPa 0,0 l/m 0,0 km/h (0 Bft) N 0 0 W/m -2,7 C -1,1 C 0,0 km/h (0 Bft)
21.02.2020 00:46 21,5 C -1,1 C 36 % 89 % 1020,5 hPa 0,0 l/m 0,0 km/h (0 Bft) N 0 0 W/m -2,7 C -1,1 C 0,0 km/h (0 Bft)
21.02.2020 00:45 21,5 C -1,1 C 36 % 89 % 1020,5 hPa 0,0 l/m 0,0 km/h (0 Bft) N 0 0 W/m -2,7 C -1,1 C 0,0 km/h (0 Bft)
21.02.2020 00:44 21,5 C -1,1 C 36 % 89 % 1020,5 hPa 0,0 l/m 0,0 km/h (0 Bft) N 0 0 W/m -2,7 C -1,1 C 0,0 km/h (0 Bft)
21.02.2020 00:43 21,6 C -1,1 C 36 % 89 % 1020,5 hPa 0,0 l/m 0,0 km/h (0 Bft) N 0 0 W/m -2,7 C -1,1 C 0,0 km/h (0 Bft)
21.02.2020 00:42 21,6 C -1,1 C 36 % 89 % 1020,4 hPa 0,0 l/m 0,0 km/h (0 Bft) N 0 0 W/m -2,7 C -1,1 C 0,0 km/h (0 Bft)
21.02.2020 00:41 21,6 C -1,1 C 36 % 89 % 1020,5 hPa 0,0 l/m 0,0 km/h (0 Bft) N 0 0 W/m -2,7 C -1,1 C 0,0 km/h (0 Bft)
21.02.2020 00:40 21,6 C -1,1 C 36 % 89 % 1020,4 hPa 0,0 l/m 0,0 km/h (0 Bft) N 0 0 W/m -2,7 C -1,1 C 0,0 km/h (0 Bft)
21.02.2020 00:39 21,6 C -1,1 C 36 % 89 % 1020,4 hPa 0,0 l/m 0,0 km/h (0 Bft) N 0 0 W/m -2,7 C -1,1 C 0,0 km/h (0 Bft)
21.02.2020 00:38 21,6 C -1,1 C 36 % 89 % 1020,4 hPa 0,0 l/m 0,0 km/h (0 Bft) N 0 0 W/m -2,7 C -1,1 C 0,0 km/h (0 Bft)
21.02.2020 00:37 21,6 C -1,1 C 36 % 89 % 1020,4 hPa 0,0 l/m 0,0 km/h (0 Bft) N 0 0 W/m -2,7 C -1,1 C 0,0 km/h (0 Bft)
21.02.2020 00:36 21,6 C -1,1 C 36 % 89 % 1020,4 hPa 0,0 l/m 0,0 km/h (0 Bft) N 0 0 W/m -2,7 C -1,1 C 0,0 km/h (0 Bft)
21.02.2020 00:35 21,6 C -1,1 C 36 % 89 % 1020,4 hPa 0,0 l/m 0,0 km/h (0 Bft) N 0 0 W/m -2,7 C -1,1 C 0,0 km/h (0 Bft)
21.02.2020 00:34 21,6 C -1,1 C 36 % 89 % 1020,5 hPa 0,0 l/m 0,0 km/h (0 Bft) N 0 0 W/m -2,7 C -1,1 C 0,0 km/h (0 Bft)
21.02.2020 00:33 21,6 C -1,1 C 36 % 89 % 1020,4 hPa 0,0 l/m 0,0 km/h (0 Bft) N 0 0 W/m -2,7 C -1,1 C 0,0 km/h (0 Bft)
21.02.2020 00:32 21,7 C -1,1 C 36 % 89 % 1020,5 hPa 0,0 l/m 0,0 km/h (0 Bft) N 0 0 W/m -2,7 C -1,1 C 0,0 km/h (0 Bft)
21.02.2020 00:31 21,7 C -1,1 C 36 % 89 % 1020,5 hPa 0,0 l/m 0,0 km/h (0 Bft) N 0 0 W/m -2,7 C -1,1 C 0,0 km/h (0 Bft)
21.02.2020 00:30 21,7 C -1,1 C 36 % 89 % 1020,4 hPa 0,0 l/m 0,0 km/h (0 Bft) N 0 0 W/m -2,7 C -1,1 C 0,0 km/h (0 Bft)
21.02.2020 00:29 21,7 C -1,1 C 36 % 89 % 1020,5 hPa 0,0 l/m 0,0 km/h (0 Bft) N 0 0 W/m -2,7 C -1,1 C 0,0 km/h (0 Bft)
21.02.2020 00:28 21,7 C -1,1 C 36 % 89 % 1020,5 hPa 0,0 l/m 0,0 km/h (0 Bft) N 0 0 W/m -2,7 C -1,1 C 0,0 km/h (0 Bft)
21.02.2020 00:27 21,7 C -1,1 C 36 % 89 % 1020,5 hPa 0,0 l/m 0,0 km/h (0 Bft) N 0 0 W/m -2,7 C -1,1 C 0,0 km/h (0 Bft)
21.02.2020 00:26 21,7 C -1,1 C 36 % 89 % 1020,6 hPa 0,0 l/m 0,0 km/h (0 Bft) N 0 0 W/m -2,7 C -1,1 C 0,0 km/h (0 Bft)
21.02.2020 00:25 21,7 C -1,1 C 36 % 89 % 1020,6 hPa 0,0 l/m 0,0 km/h (0 Bft) N 0 0 W/m -2,7 C -1,1 C 0,0 km/h (0 Bft)
21.02.2020 00:24 21,7 C -1,1 C 36 % 89 % 1020,6 hPa 0,0 l/m 0,0 km/h (0 Bft) N 0 0 W/m -2,7 C -1,1 C 0,0 km/h (0 Bft)
21.02.2020 00:23 21,7 C -1,1 C 36 % 89 % 1020,6 hPa 0,0 l/m 0,0 km/h (0 Bft) N 0 0 W/m -2,7 C -1,1 C 0,0 km/h (0 Bft)
21.02.2020 00:22 21,7 C -1,1 C 36 % 89 % 1020,6 hPa 0,0 l/m 0,0 km/h (0 Bft) N 0 0 W/m -2,7 C -1,1 C 0,0 km/h (0 Bft)
21.02.2020 00:21 21,7 C -1,1 C 36 % 89 % 1020,6 hPa 0,0 l/m 0,0 km/h (0 Bft) N 0 0 W/m -2,7 C -1,1 C 0,0 km/h (0 Bft)
21.02.2020 00:20 21,8 C -1,1 C 35 % 89 % 1020,6 hPa 0,0 l/m 0,0 km/h (0 Bft) N 0 0 W/m -2,7 C -1,1 C 0,0 km/h (0 Bft)
21.02.2020 00:19 21,8 C -1,1 C 35 % 89 % 1020,6 hPa 0,0 l/m 0,0 km/h (0 Bft) N 0 0 W/m -2,7 C -1,1 C 0,0 km/h (0 Bft)
21.02.2020 00:18 21,8 C -1,1 C 36 % 89 % 1020,5 hPa 0,0 l/m 0,0 km/h (0 Bft) N 0 0 W/m -2,7 C -1,1 C 0,0 km/h (0 Bft)
21.02.2020 00:17 21,8 C -1,1 C 36 % 89 % 1020,6 hPa 0,0 l/m 0,0 km/h (0 Bft) N 0 0 W/m -2,7 C -1,1 C 0,0 km/h (0 Bft)
21.02.2020 00:16 21,8 C -1,1 C 35 % 89 % 1020,6 hPa 0,0 l/m 0,0 km/h (0 Bft) N 0 0 W/m -2,7 C -1,1 C 0,0 km/h (0 Bft)
21.02.2020 00:15 21,8 C -1,1 C 36 % 89 % 1020,6 hPa 0,0 l/m 0,0 km/h (0 Bft) N 0 0 W/m -2,7 C -1,1 C 0,0 km/h (0 Bft)
21.02.2020 00:14 21,8 C -1,1 C 35 % 89 % 1020,6 hPa 0,0 l/m 0,0 km/h (0 Bft) N 0 0 W/m -2,7 C -1,1 C 0,0 km/h (0 Bft)
21.02.2020 00:13 21,8 C -1,1 C 35 % 89 % 1020,6 hPa 0,0 l/m 0,0 km/h (0 Bft) N 0 0 W/m -2,7 C -1,1 C 0,0 km/h (0 Bft)
21.02.2020 00:12 21,8 C -1,1 C 35 % 89 % 1020,6 hPa 0,0 l/m 0,0 km/h (0 Bft) N 0 0 W/m -2,7 C -1,1 C 0,0 km/h (0 Bft)
21.02.2020 00:11 21,8 C -1,1 C 36 % 89 % 1020,7 hPa 0,0 l/m 0,0 km/h (0 Bft) N 0 0 W/m -2,7 C -1,1 C 0,0 km/h (0 Bft)
21.02.2020 00:10 21,8 C -1,1 C 36 % 89 % 1020,7 hPa 0,0 l/m 0,0 km/h (0 Bft) N 0 0 W/m -2,7 C -1,1 C 0,0 km/h (0 Bft)
21.02.2020 00:09 21,8 C -1,1 C 36 % 89 % 1020,8 hPa 0,0 l/m 0,0 km/h (0 Bft) N 0 0 W/m -2,7 C -1,1 C 0,0 km/h (0 Bft)
21.02.2020 00:08 21,8 C -1,1 C 36 % 89 % 1020,8 hPa 0,0 l/m 0,0 km/h (0 Bft) N 0 0 W/m -2,7 C -1,1 C 0,0 km/h (0 Bft)
21.02.2020 00:07 21,8 C -1,1 C 36 % 89 % 1020,7 hPa 0,0 l/m 0,0 km/h (0 Bft) N 0 0 W/m -2,7 C -1,1 C 0,0 km/h (0 Bft)
21.02.2020 00:06 21,8 C -1,1 C 36 % 89 % 1020,7 hPa 0,0 l/m 0,0 km/h (0 Bft) N 0 0 W/m -2,7 C -1,1 C 0,0 km/h (0 Bft)
21.02.2020 00:05 21,8 C -1,1 C 36 % 89 % 1020,7 hPa 0,0 l/m 0,0 km/h (0 Bft) N 0 0 W/m -2,7 C -1,1 C 0,0 km/h (0 Bft)
21.02.2020 00:04 21,8 C -1,1 C 36 % 89 % 1020,7 hPa 0,0 l/m 0,0 km/h (0 Bft) N 0 0 W/m -2,7 C -1,1 C 0,0 km/h (0 Bft)
21.02.2020 00:03 21,8 C -1,1 C 36 % 89 % 1020,8 hPa 0,0 l/m 0,0 km/h (0 Bft) N 0 0 W/m -2,7 C -1,1 C 0,0 km/h (0 Bft)
21.02.2020 00:02 21,8 C -1,1 C 36 % 89 % 1020,8 hPa 0,0 l/m 0,0 km/h (0 Bft) N 0 0 W/m -2,7 C -1,1 C 0,0 km/h (0 Bft)
21.02.2020 00:01 21,8 C -1,1 C 36 % 89 % 1020,8 hPa 0,0 l/m 0,0 km/h (0 Bft) N 0 0 W/m -2,7 C -1,1 C 0,0 km/h (0 Bft)
21.02.2020 00:00 21,8 C -1,1 C 36 % 89 % 1020,9 hPa 0,0 l/m 0,0 km/h (0 Bft) N 0 0 W/m -2,7 C -1,1 C 0,0 km/h (0 Bft)
_ Min-Zeit 05:40 01:59 00:12 07:11 04:37 - 00:00 - - - 01:59 06:55 00:00
Minimum _ 20,7 C -1,6 C 35 % 73 % 1019,0 hPa - 0,0 km/h (0 Bft) - - - -3,0 C -4,3 C 0,0 km/h (0 Bft)
_ Max-Zeit 00:00 03:37 00:00 00:53 07:13 02:57 06:55 - - 07:11 04:54 03:41 04:52
Maximum _ 21,8 C 7,3 C 36 % 90 % 1025,7 hPa 0,2 l/m 25,7 km/h
W-SW (4 Bft)
- - 7 W/m 4,6 C 7,3 C 46,7 km/h
W-NW (6 Bft)
Durchschnitt _ 21,2 C 3,1 C 36 % 86 % 1021,0 hPa #0,8 l/m 6,3 km/h (2 Bft) W-SW - 6 W/m 0,9 C 1,2 C 11,4 km/h (2 Bft)